Wetterdaten: Sonntag, 13.02.2022
Datum Zeit Temp. Aussen Temp. o. S. Temp +5cm Feuchte Auss Luftdruck Regen Sonnenschein Regendauer Solar Windben Empfang
13.02.2022 00:00 1,3 C 0,6 C -2,2 C 85 % 1021,2 hPa 0,0 l/m 0 min 0 min 0 W/m 19,3 km/h (3 Bft) 97,87 %
13.02.2022 00:02 1,3 C 0,6 C -2,2 C 85 % 1021,2 hPa 0,0 l/m 0 min 0 min 0 W/m 16,1 km/h (3 Bft) 94,87 %
13.02.2022 00:04 1,3 C 0,6 C -2,2 C 85 % 1021,1 hPa 0,0 l/m 0 min 0 min 0 W/m 12,9 km/h (3 Bft) 95,74 %
13.02.2022 00:08 1,2 C 0,6 C -2,8 C 85 % 1021,0 hPa 0,0 l/m 0 min 0 min 0 W/m 19,3 km/h (3 Bft) 96,81 %
13.02.2022 00:10 1,2 C 0,6 C -2,8 C 85 % 1021,0 hPa 0,0 l/m 0 min 0 min 0 W/m 19,3 km/h (3 Bft) 97,87 %
13.02.2022 00:12 1,2 C 0,6 C -2,8 C 86 % 1021,0 hPa 0,0 l/m 0 min 0 min 0 W/m 19,3 km/h (3 Bft) 95,74 %
13.02.2022 00:14 1,2 C 0,6 C -2,8 C 86 % 1021,0 hPa 0,0 l/m 0 min 0 min 0 W/m 16,1 km/h (3 Bft) 97,83 %
13.02.2022 00:16 1,2 C 0,6 C -2,8 C 86 % 1020,9 hPa 0,0 l/m 0 min 0 min 0 W/m 22,5 km/h (4 Bft) 97,87 %
13.02.2022 00:18 1,2 C 0,6 C -2,8 C 86 % 1020,9 hPa 0,0 l/m 0 min 0 min 0 W/m 16,1 km/h (3 Bft) 97,87 %
13.02.2022 00:20 1,2 C 0,6 C -2,8 C 86 % 1020,9 hPa 0,0 l/m 0 min 0 min 0 W/m 16,1 km/h (3 Bft) 93,62 %
13.02.2022 00:22 1,2 C 0,6 C -2,8 C 86 % 1020,9 hPa 0,0 l/m 0 min 0 min 0 W/m 22,5 km/h (4 Bft) 97,87 %
13.02.2022 00:24 1,2 C 0,6 C -2,8 C 86 % 1020,9 hPa 0,0 l/m 0 min 0 min 0 W/m 16,1 km/h (3 Bft) 97,87 %
13.02.2022 00:26 1,2 C 0,6 C -2,8 C 86 % 1020,9 hPa 0,0 l/m 0 min 0 min 0 W/m 16,1 km/h (3 Bft) 97,83 %
13.02.2022 00:28 1,2 C 0,6 C -2,8 C 86 % 1020,9 hPa 0,0 l/m 0 min 0 min 0 W/m 16,1 km/h (3 Bft) 95,74 %
13.02.2022 00:30 1,2 C 0,6 C -2,8 C 86 % 1020,9 hPa 0,0 l/m 0 min 0 min 0 W/m 22,5 km/h (4 Bft) 95,74 %
13.02.2022 00:32 1,2 C 0,6 C -2,8 C 86 % 1021,0 hPa 0,0 l/m 0 min 0 min 0 W/m 19,3 km/h (3 Bft) 91,49 %
13.02.2022 00:34 1,1 C 0,6 C -2,8 C 86 % 1020,9 hPa 0,0 l/m 0 min 0 min 0 W/m 16,1 km/h (3 Bft) 95,74 %
13.02.2022 00:36 1,1 C 0,6 C -2,8 C 86 % 1020,9 hPa 0,0 l/m 0 min 0 min 0 W/m 12,9 km/h (3 Bft) 95,74 %
13.02.2022 00:38 1,1 C 0,6 C -2,8 C 86 % 1020,8 hPa 0,0 l/m 0 min 0 min 0 W/m 16,1 km/h (3 Bft) 95,65 %
13.02.2022 00:40 1,1 C 0,6 C -2,8 C 86 % 1020,7 hPa 0,0 l/m 0 min 0 min 0 W/m 19,3 km/h (3 Bft) 95,74 %
13.02.2022 00:42 1,1 C 0,6 C -2,8 C 86 % 1020,7 hPa 0,0 l/m 0 min 0 min 0 W/m 19,3 km/h (3 Bft) 95,74 %
13.02.2022 00:44 1,1 C 0,6 C -2,8 C 86 % 1020,7 hPa 0,0 l/m 0 min 0 min 0 W/m 16,1 km/h (3 Bft) 95,74 %
13.02.2022 00:46 1,1 C 0,6 C -2,8 C 86 % 1020,7 hPa 0,0 l/m 0 min 0 min 0 W/m 19,3 km/h (3 Bft) 95,74 %
13.02.2022 00:48 1,1 C 0,6 C -2,8 C 86 % 1020,7 hPa 0,0 l/m 0 min 0 min 0 W/m 19,3 km/h (3 Bft) 93,62 %
13.02.2022 00:50 1,0 C 0,6 C -2,8 C 86 % 1020,7 hPa 0,0 l/m 0 min 0 min 0 W/m 19,3 km/h (3 Bft) 95,65 %
13.02.2022 00:52 1,0 C 0,0 C -2,8 C 86 % 1020,6 hPa 0,0 l/m 0 min 0 min 0 W/m 12,9 km/h (3 Bft) 93,62 %
13.02.2022 00:54 1,0 C 0,0 C -2,8 C 86 % 1020,6 hPa 0,0 l/m 0 min 0 min 0 W/m 19,3 km/h (3 Bft) 97,87 %
13.02.2022 00:56 1,0 C 0,0 C -2,8 C 86 % 1020,6 hPa 0,0 l/m 0 min 0 min 0 W/m 12,9 km/h (3 Bft) 95,74 %
13.02.2022 00:58 0,9 C 0,0 C -2,8 C 86 % 1020,6 hPa 0,0 l/m 0 min 0 min 0 W/m 16,1 km/h (3 Bft) 97,87 %
13.02.2022 01:00 0,9 C 0,0 C -2,8 C 86 % 1020,6 hPa 0,0 l/m 0 min 0 min 0 W/m 16,1 km/h (3 Bft) 100,00 %
13.02.2022 01:02 0,9 C 0,0 C -2,8 C 86 % 1020,6 hPa 0,0 l/m 0 min 0 min 0 W/m 12,9 km/h (3 Bft) 97,83 %
13.02.2022 01:04 0,9 C 0,0 C -2,8 C 86 % 1020,6 hPa 0,0 l/m 0 min 0 min 0 W/m 12,9 km/h (3 Bft) 97,87 %
13.02.2022 01:06 0,9 C 0,0 C -2,8 C 86 % 1020,5 hPa 0,0 l/m 0 min 0 min 0 W/m 19,3 km/h (3 Bft) 97,87 %
13.02.2022 01:08 0,9 C 0,0 C -2,8 C 86 % 1020,5 hPa 0,0 l/m 0 min 0 min 0 W/m 12,9 km/h (3 Bft) 97,87 %
13.02.2022 01:10 0,9 C 0,0 C -2,8 C 86 % 1020,5 hPa 0,0 l/m 0 min 0 min 0 W/m 12,9 km/h (3 Bft) 72,34 %
13.02.2022 01:12 0,9 C 0,0 C -2,8 C 87 % 1020,4 hPa 0,0 l/m 0 min 0 min 0 W/m 12,9 km/h (3 Bft) 82,98 %
13.02.2022 01:14 0,8 C 0,0 C -2,8 C 87 % 1020,4 hPa 0,0 l/m 0 min 0 min 0 W/m 19,3 km/h (3 Bft) 100,00 %
13.02.2022 01:16 0,8 C 0,0 C -2,8 C 87 % 1020,4 hPa 0,0 l/m 0 min 0 min 0 W/m 19,3 km/h (3 Bft) 97,87 %
13.02.2022 01:18 0,8 C 0,0 C -2,8 C 86 % 1020,4 hPa 0,0 l/m 0 min 0 min 0 W/m 19,3 km/h (3 Bft) 97,87 %
13.02.2022 01:20 0,8 C 0,0 C -2,8 C 86 % 1020,3 hPa 0,0 l/m 0 min 0 min 0 W/m 16,1 km/h (3 Bft) 97,87 %
13.02.2022 01:22 0,8 C 0,0 C -2,8 C 87 % 1020,3 hPa 0,0 l/m 0 min 0 min 0 W/m 19,3 km/h (3 Bft) 97,87 %
13.02.2022 01:24 0,8 C 0,0 C -2,8 C 87 % 1020,3 hPa 0,0 l/m 0 min 0 min 0 W/m 16,1 km/h (3 Bft) 97,87 %
13.02.2022 01:26 0,8 C 0,0 C -2,8 C 87 % 1020,2 hPa 0,0 l/m 0 min 0 min 0 W/m 19,3 km/h (3 Bft) 97,83 %
13.02.2022 01:28 0,8 C 0,0 C -2,8 C 87 % 1020,2 hPa 0,0 l/m 0 min 0 min 0 W/m 12,9 km/h (3 Bft) 97,87 %
13.02.2022 01:30 0,7 C 0,0 C -2,8 C 87 % 1020,2 hPa 0,0 l/m 0 min 0 min 0 W/m 16,1 km/h (3 Bft) 97,87 %
13.02.2022 01:32 0,7 C 0,0 C -2,8 C 87 % 1020,3 hPa 0,0 l/m 0 min 0 min 0 W/m 12,9 km/h (3 Bft) 97,87 %
13.02.2022 01:34 0,7 C 0,0 C -2,8 C 87 % 1020,2 hPa 0,0 l/m 0 min 0 min 0 W/m 12,9 km/h (3 Bft) 95,74 %
13.02.2022 01:36 0,7 C 0,0 C -2,8 C 87 % 1020,1 hPa 0,0 l/m 0 min 0 min 0 W/m 19,3 km/h (3 Bft) 97,87 %
13.02.2022 01:38 0,7 C 0,0 C -2,8 C 87 % 1020,1 hPa 0,0 l/m 0 min 0 min 0 W/m 19,3 km/h (3 Bft) 93,48 %
13.02.2022 01:40 0,7 C 0,0 C -2,8 C 87 % 1020,1 hPa 0,0 l/m 0 min 0 min 0 W/m 22,5 km/h (4 Bft) 97,87 %
13.02.2022 01:42 0,7 C 0,0 C -2,8 C 87 % 1020,0 hPa 0,0 l/m 0 min 0 min 0 W/m 19,3 km/h (3 Bft) 95,74 %
13.02.2022 01:44 0,7 C 0,0 C -2,8 C 87 % 1020,0 hPa 0,0 l/m 0 min 0 min 0 W/m 19,3 km/h (3 Bft) 95,74 %
13.02.2022 01:46 0,7 C 0,0 C -2,8 C 87 % 1020,1 hPa 0,0 l/m 0 min 0 min 0 W/m 19,3 km/h (3 Bft) 97,87 %
13.02.2022 01:48 0,7 C 0,0 C -2,8 C 87 % 1020,1 hPa 0,0 l/m 0 min 0 min 0 W/m 19,3 km/h (3 Bft) 97,87 %
13.02.2022 01:50 0,7 C 0,0 C -2,8 C 87 % 1020,1 hPa 0,0 l/m 0 min 0 min 0 W/m 22,5 km/h (4 Bft) 97,83 %
13.02.2022 01:52 0,7 C 0,0 C -2,8 C 87 % 1020,0 hPa 0,0 l/m 0 min 0 min 0 W/m 19,3 km/h (3 Bft) 95,74 %
13.02.2022 01:54 0,7 C 0,0 C -2,8 C 87 % 1020,0 hPa 0,0 l/m 0 min 0 min 0 W/m 19,3 km/h (3 Bft) 97,87 %
13.02.2022 01:56 0,7 C 0,0 C -2,8 C 87 % 1019,9 hPa 0,0 l/m 0 min 0 min 0 W/m 16,1 km/h (3 Bft) 97,87 %
13.02.2022 01:58 0,7 C 0,0 C -2,8 C 87 % 1020,0 hPa 0,0 l/m 0 min 0 min 0 W/m 12,9 km/h (3 Bft) 100,00 %
13.02.2022 02:00 0,7 C 0,0 C -2,8 C 86 % 1019,9 hPa 0,0 l/m 0 min 0 min 0 W/m 22,5 km/h (4 Bft) 100,00 %
13.02.2022 02:02 0,6 C 0,0 C -2,8 C 86 % 1019,9 hPa 0,0 l/m 0 min 0 min 0 W/m 19,3 km/h (3 Bft) 100,00 %
13.02.2022 02:04 0,6 C 0,0 C -2,8 C 86 % 1020,0 hPa 0,0 l/m 0 min 0 min 0 W/m 16,1 km/h (3 Bft) 97,87 %
13.02.2022 02:06 0,6 C 0,0 C -2,8 C 86 % 1019,9 hPa 0,0 l/m 0 min 0 min 0 W/m 19,3 km/h (3 Bft) 100,00 %
13.02.2022 02:08 0,6 C 0,0 C -2,8 C 86 % 1019,9 hPa 0,0 l/m 0 min 0 min 0 W/m 19,3 km/h (3 Bft) 100,00 %
13.02.2022 02:10 0,6 C 0,0 C -2,8 C 86 % 1020,0 hPa 0,0 l/m 0 min 0 min 0 W/m 19,3 km/h (3 Bft) 100,00 %
13.02.2022 02:12 0,6 C 0,0 C -2,8 C 86 % 1020,0 hPa 0,0 l/m 0 min 0 min 0 W/m 19,3 km/h (3 Bft) 100,00 %
13.02.2022 02:14 0,6 C 0,0 C -3,3 C 86 % 1019,9 hPa 0,0 l/m 0 min 0 min 0 W/m 12,9 km/h (3 Bft) 97,87 %
13.02.2022 02:16 0,6 C 0,0 C -3,3 C 86 % 1019,9 hPa 0,0 l/m 0 min 0 min 0 W/m 16,1 km/h (3 Bft) 97,87 %
13.02.2022 02:18 0,6 C 0,0 C -3,3 C 86 % 1019,9 hPa 0,0 l/m 0 min 0 min 0 W/m 9,7 km/h (2 Bft) 100,00 %
13.02.2022 02:20 0,6 C 0,0 C -3,3 C 86 % 1019,9 hPa 0,0 l/m 0 min 0 min 0 W/m 19,3 km/h (3 Bft) 95,74 %
13.02.2022 02:22 0,6 C 0,0 C -3,3 C 86 % 1019,8 hPa 0,0 l/m 0 min 0 min 0 W/m 22,5 km/h (4 Bft) 97,87 %
13.02.2022 02:24 0,6 C 0,0 C -3,3 C 86 % 1019,7 hPa 0,0 l/m 0 min 0 min 0 W/m 19,3 km/h (3 Bft) 97,83 %
13.02.2022 02:26 0,6 C 0,0 C -3,3 C 86 % 1019,7 hPa 0,0 l/m 0 min 0 min 0 W/m 16,1 km/h (3 Bft) 100,00 %
13.02.2022 02:28 0,6 C 0,0 C -3,3 C 86 % 1019,7 hPa 0,0 l/m 0 min 0 min 0 W/m 16,1 km/h (3 Bft) 95,74 %
13.02.2022 02:30 0,6 C 0,0 C -3,3 C 86 % 1019,7 hPa 0,0 l/m 0 min 0 min 0 W/m 19,3 km/h (3 Bft) 97,87 %
13.02.2022 02:32 0,6 C 0,0 C -3,3 C 86 % 1019,7 hPa 0,0 l/m 0 min 0 min 0 W/m 16,1 km/h (3 Bft) 97,87 %
13.02.2022 02:34 0,6 C 0,0 C -3,3 C 86 % 1019,7 hPa 0,0 l/m 0 min 0 min 0 W/m 12,9 km/h (3 Bft) 97,87 %
13.02.2022 02:36 0,5 C 0,0 C -3,3 C 86 % 1019,7 hPa 0,0 l/m 0 min 0 min 0 W/m 19,3 km/h (3 Bft) 95,65 %
13.02.2022 02:38 0,6 C 0,0 C -3,3 C 86 % 1019,7 hPa 0,0 l/m 0 min 0 min 0 W/m 6,4 km/h (2 Bft) 97,87 %
13.02.2022 02:40 0,5 C 0,0 C -3,3 C 86 % 1019,8 hPa 0,0 l/m 0 min 0 min 0 W/m 12,9 km/h (3 Bft) 97,87 %
13.02.2022 02:42 0,5 C 0,0 C -3,3 C 86 % 1019,7 hPa 0,0 l/m 0 min 0 min 0 W/m 22,5 km/h (4 Bft) 95,74 %
13.02.2022 02:44 0,5 C 0,0 C -3,3 C 86 % 1019,7 hPa 0,0 l/m 0 min 0 min 0 W/m 19,3 km/h (3 Bft) 97,87 %
13.02.2022 02:46 0,5 C 0,0 C -3,3 C 86 % 1019,7 hPa 0,0 l/m 0 min 0 min 0 W/m 19,3 km/h (3 Bft) 100,00 %
13.02.2022 02:48 0,5 C 0,0 C -3,3 C 86 % 1019,6 hPa 0,0 l/m 0 min 0 min 0 W/m 12,9 km/h (3 Bft) 100,00 %
13.02.2022 02:50 0,5 C 0,0 C -3,3 C 86 % 1019,6 hPa 0,0 l/m 0 min 0 min 0 W/m 16,1 km/h (3 Bft) 100,00 %
13.02.2022 02:52 0,5 C 0,0 C -3,3 C 86 % 1019,6 hPa 0,0 l/m 0 min 0 min 0 W/m 16,1 km/h (3 Bft) 97,87 %
13.02.2022 02:54 0,5 C 0,0 C -3,3 C 86 % 1019,6 hPa 0,0 l/m 0 min 0 min 0 W/m 16,1 km/h (3 Bft) 100,00 %
13.02.2022 02:56 0,5 C 0,0 C -3,3 C 86 % 1019,6 hPa 0,0 l/m 0 min 0 min 0 W/m 19,3 km/h (3 Bft) 100,00 %
13.02.2022 02:58 0,5 C 0,0 C -3,3 C 86 % 1019,6 hPa 0,0 l/m 0 min 0 min 0 W/m 16,1 km/h (3 Bft) 100,00 %
13.02.2022 03:00 0,5 C 0,0 C -3,3 C 86 % 1019,7 hPa 0,0 l/m 0 min 0 min 0 W/m 16,1 km/h (3 Bft) 100,00 %
13.02.2022 03:02 0,4 C 0,0 C -3,3 C 86 % 1019,6 hPa 0,0 l/m 0 min 0 min 0 W/m 9,7 km/h (2 Bft) 97,87 %
13.02.2022 03:04 0,4 C -0,6 C -3,3 C 86 % 1019,7 hPa 0,0 l/m 0 min 0 min 0 W/m 16,1 km/h (3 Bft) 100,00 %
13.02.2022 03:06 0,4 C 0,0 C -3,3 C 86 % 1019,6 hPa 0,0 l/m 0 min 0 min 0 W/m 16,1 km/h (3 Bft) 100,00 %
13.02.2022 03:08 0,4 C 0,0 C -3,3 C 86 % 1019,6 hPa 0,0 l/m 0 min 0 min 0 W/m 16,1 km/h (3 Bft) 95,74 %
13.02.2022 03:10 0,4 C 0,0 C -3,3 C 86 % 1019,6 hPa 0,0 l/m 0 min 0 min 0 W/m 16,1 km/h (3 Bft) 97,87 %
13.02.2022 03:12 0,4 C -0,6 C -3,3 C 86 % 1019,6 hPa 0,0 l/m 0 min 0 min 0 W/m 12,9 km/h (3 Bft) 97,83 %
13.02.2022 03:14 0,4 C -0,6 C -3,3 C 86 % 1019,6 hPa 0,0 l/m 0 min 0 min 0 W/m 16,1 km/h (3 Bft) 97,87 %
13.02.2022 03:16 0,4 C -0,6 C -3,3 C 86 % 1019,6 hPa 0,0 l/m 0 min 0 min 0 W/m 16,1 km/h (3 Bft) 97,87 %
13.02.2022 03:18 0,4 C -0,6 C -3,3 C 85 % 1019,6 hPa 0,0 l/m 0 min 0 min 0 W/m 12,9 km/h (3 Bft) 97,87 %
13.02.2022 03:20 0,4 C -0,6 C -3,3 C 85 % 1019,5 hPa 0,0 l/m 0 min 0 min 0 W/m 12,9 km/h (3 Bft) 97,87 %
13.02.2022 03:22 0,3 C -0,6 C -3,3 C 85 % 1019,5 hPa 0,0 l/m 0 min 0 min 0 W/m 16,1 km/h (3 Bft) 80,85 %
13.02.2022 03:24 0,3 C -0,6 C -3,3 C 86 % 1019,4 hPa 0,0 l/m 0 min 0 min 0 W/m 19,3 km/h (3 Bft) 65,00 %
13.02.2022 03:26 0,3 C -0,6 C -3,3 C 86 % 1019,5 hPa 0,0 l/m 0 min 0 min 0 W/m 19,3 km/h (3 Bft) 97,87 %
13.02.2022 03:28 0,3 C -0,6 C -3,3 C 86 % 1019,5 hPa 0,0 l/m 0 min 0 min 0 W/m 12,9 km/h (3 Bft) 97,87 %
13.02.2022 03:30 0,3 C -0,6 C -3,3 C 86 % 1019,5 hPa 0,0 l/m 0 min 0 min 0 W/m 16,1 km/h (3 Bft) 95,74 %
13.02.2022 03:32 0,3 C -0,6 C -3,3 C 86 % 1019,5 hPa 0,0 l/m 0 min 0 min 0 W/m 19,3 km/h (3 Bft) 97,87 %
13.02.2022 03:34 0,3 C -0,6 C -3,3 C 86 % 1019,4 hPa 0,0 l/m 0 min 0 min 0 W/m 16,1 km/h (3 Bft) 97,87 %
13.02.2022 03:36 0,3 C -0,6 C -3,3 C 86 % 1019,4 hPa 0,0 l/m 0 min 0 min 0 W/m 16,1 km/h (3 Bft) 95,65 %
13.02.2022 03:38 0,2 C -0,6 C -3,3 C 86 % 1019,3 hPa 0,0 l/m 0 min 0 min 0 W/m 12,9 km/h (3 Bft) 93,62 %
13.02.2022 03:40 0,2 C -0,6 C -3,3 C 86 % 1019,3 hPa 0,0 l/m 0 min 0 min 0 W/m 12,9 km/h (3 Bft) 95,74 %
13.02.2022 03:42 0,2 C -0,6 C -3,3 C 86 % 1019,3 hPa 0,0 l/m 0 min 0 min 0 W/m 16,1 km/h (3 Bft) 91,49 %
13.02.2022 03:44 0,2 C -0,6 C -3,3 C 86 % 1019,2 hPa 0,0 l/m 0 min 0 min 0 W/m 16,1 km/h (3 Bft) 95,74 %
13.02.2022 03:46 0,2 C -0,6 C -3,3 C 86 % 1019,1 hPa 0,0 l/m 0 min 0 min 0 W/m 12,9 km/h (3 Bft) 95,65 %
13.02.2022 03:48 0,2 C -0,6 C -3,3 C 86 % 1019,1 hPa 0,0 l/m 0 min 0 min 0 W/m 19,3 km/h (3 Bft) 95,74 %
13.02.2022 03:50 0,2 C -0,6 C -3,3 C 86 % 1019,1 hPa 0,0 l/m 0 min 0 min 0 W/m 19,3 km/h (3 Bft) 95,74 %
13.02.2022 03:52 0,2 C -0,6 C -3,3 C 86 % 1019,1 hPa 0,0 l/m 0 min 0 min 0 W/m 12,9 km/h (3 Bft) 95,74 %
13.02.2022 03:54 0,2 C -0,6 C -3,3 C 86 % 1019,1 hPa 0,0 l/m 0 min 0 min 0 W/m 19,3 km/h (3 Bft) 93,62 %
13.02.2022 03:56 0,2 C -0,6 C -3,3 C 86 % 1019,0 hPa 0,0 l/m 0 min 0 min 0 W/m 19,3 km/h (3 Bft) 95,74 %
13.02.2022 03:58 0,2 C -0,6 C -3,3 C 86 % 1019,0 hPa 0,0 l/m 0 min 0 min 0 W/m 16,1 km/h (3 Bft) 91,30 %
13.02.2022 04:00 0,2 C -0,6 C -3,3 C 86 % 1018,9 hPa 0,0 l/m 0 min 0 min 0 W/m 16,1 km/h (3 Bft) 95,74 %
13.02.2022 04:02 0,1 C -0,6 C -3,3 C 86 % 1018,9 hPa 0,0 l/m 0 min 0 min 0 W/m 16,1 km/h (3 Bft) 100,00 %
13.02.2022 04:04 0,1 C -0,6 C -3,3 C 86 % 1018,8 hPa 0,0 l/m 0 min 0 min 0 W/m 12,9 km/h (3 Bft) 95,74 %
13.02.2022 04:06 0,1 C -0,6 C -3,3 C 86 % 1018,8 hPa 0,0 l/m 0 min 0 min 0 W/m 19,3 km/h (3 Bft) 93,62 %
13.02.2022 04:08 0,1 C -0,6 C -3,3 C 86 % 1018,7 hPa 0,0 l/m 0 min 0 min 0 W/m 12,9 km/h (3 Bft) 93,62 %
13.02.2022 04:10 0,1 C -0,6 C -3,3 C 86 % 1018,7 hPa 0,0 l/m 0 min 0 min 0 W/m 12,9 km/h (3 Bft) 95,65 %
13.02.2022 04:12 0,1 C -0,6 C -3,3 C 86 % 1018,6 hPa 0,0 l/m 0 min 0 min 0 W/m 22,5 km/h (4 Bft) 93,62 %
13.02.2022 04:14 0,1 C -0,6 C -3,3 C 86 % 1018,6 hPa 0,0 l/m 0 min 0 min 0 W/m 16,1 km/h (3 Bft) 100,00 %
13.02.2022 04:16 0,1 C -0,6 C -3,3 C 86 % 1018,6 hPa 0,0 l/m 0 min 0 min 0 W/m 22,5 km/h (4 Bft) 95,74 %
13.02.2022 04:18 0,1 C -0,6 C -3,3 C 86 % 1018,6 hPa 0,0 l/m 0 min 0 min 0 W/m 16,1 km/h (3 Bft) 95,74 %
13.02.2022 04:20 0,1 C -0,6 C -3,3 C 86 % 1018,5 hPa 0,0 l/m 0 min 0 min 0 W/m 16,1 km/h (3 Bft) 97,87 %
13.02.2022 04:22 0,1 C -0,6 C -3,3 C 86 % 1018,5 hPa 0,0 l/m 0 min 0 min 0 W/m 16,1 km/h (3 Bft) 95,65 %
13.02.2022 04:24 0,1 C -0,6 C -3,3 C 86 % 1018,4 hPa 0,0 l/m 0 min 0 min 0 W/m 16,1 km/h (3 Bft) 97,87 %
13.02.2022 04:26 0,1 C -0,6 C -3,3 C 86 % 1018,5 hPa 0,0 l/m 0 min 0 min 0 W/m 19,3 km/h (3 Bft) 97,87 %
13.02.2022 04:28 0,1 C -0,6 C -3,3 C 86 % 1018,4 hPa 0,0 l/m 0 min 0 min 0 W/m 12,9 km/h (3 Bft) 97,87 %
13.02.2022 04:30 0,1 C -0,6 C -3,3 C 86 % 1018,4 hPa 0,0 l/m 0 min 0 min 0 W/m 16,1 km/h (3 Bft) 97,87 %
13.02.2022 04:32 0,1 C -0,6 C -3,9 C 86 % 1018,4 hPa 0,0 l/m 0 min 0 min 0 W/m 16,1 km/h (3 Bft) 97,87 %
13.02.2022 04:34 0,1 C -0,6 C -3,9 C 86 % 1018,4 hPa 0,0 l/m 0 min 0 min 0 W/m 12,9 km/h (3 Bft) 100,00 %
13.02.2022 04:36 0,1 C -0,6 C -3,9 C 86 % 1018,4 hPa 0,0 l/m 0 min 0 min 0 W/m 16,1 km/h (3 Bft) 100,00 %
13.02.2022 04:38 0,0 C -0,6 C -3,9 C 86 % 1018,4 hPa 0,0 l/m 0 min 0 min 0 W/m 16,1 km/h (3 Bft) 97,87 %
13.02.2022 04:40 0,0 C -1,1 C -3,9 C 86 % 1018,4 hPa 0,0 l/m 0 min 0 min 0 W/m 12,9 km/h (3 Bft) 97,87 %
13.02.2022 04:42 0,0 C -1,1 C -3,9 C 86 % 1018,4 hPa 0,0 l/m 0 min 0 min 0 W/m 12,9 km/h (3 Bft) 97,87 %
13.02.2022 04:44 0,0 C -1,1 C -3,9 C 86 % 1018,3 hPa 0,0 l/m 0 min 0 min 0 W/m 19,3 km/h (3 Bft) 100,00 %
13.02.2022 04:46 -0,1 C -1,1 C -3,9 C 86 % 1018,3 hPa 0,0 l/m 0 min 0 min 0 W/m 16,1 km/h (3 Bft) 100,00 %
13.02.2022 04:48 -0,1 C -1,1 C -3,9 C 86 % 1018,3 hPa 0,0 l/m 0 min 0 min 0 W/m 12,9 km/h (3 Bft) 100,00 %
13.02.2022 04:50 -0,1 C -1,1 C -3,9 C 86 % 1018,3 hPa 0,0 l/m 0 min 0 min 0 W/m 16,1 km/h (3 Bft) 100,00 %
13.02.2022 04:52 -0,1 C -1,1 C -3,9 C 86 % 1018,2 hPa 0,0 l/m 0 min 0 min 0 W/m 19,3 km/h (3 Bft) 100,00 %
13.02.2022 04:54 -0,1 C -1,1 C -3,9 C 86 % 1018,3 hPa 0,0 l/m 0 min 0 min 0 W/m 16,1 km/h (3 Bft) 100,00 %
13.02.2022 04:56 -0,1 C -1,1 C -3,9 C 86 % 1018,2 hPa 0,0 l/m 0 min 0 min 0 W/m 12,9 km/h (3 Bft) 100,00 %
13.02.2022 04:58 -0,1 C -1,1 C -3,9 C 86 % 1018,2 hPa 0,0 l/m 0 min 0 min 0 W/m 12,9 km/h (3 Bft) 100,00 %
13.02.2022 05:00 -0,2 C -1,1 C -3,9 C 86 % 1018,2 hPa 0,0 l/m 0 min 0 min 0 W/m 12,9 km/h (3 Bft) 100,00 %
13.02.2022 05:02 -0,2 C -1,1 C -3,9 C 86 % 1018,2 hPa 0,0 l/m 0 min 0 min 0 W/m 16,1 km/h (3 Bft) 97,87 %
13.02.2022 05:04 -0,2 C -1,1 C -3,9 C 86 % 1018,2 hPa 0,0 l/m 0 min 0 min 0 W/m 16,1 km/h (3 Bft) 97,87 %
13.02.2022 05:06 -0,2 C -1,1 C -3,9 C 86 % 1018,2 hPa 0,0 l/m 0 min 0 min 0 W/m 16,1 km/h (3 Bft) 100,00 %
13.02.2022 05:08 -0,2 C -1,1 C -3,9 C 86 % 1018,2 hPa 0,0 l/m 0 min 0 min 0 W/m 12,9 km/h (3 Bft) 100,00 %
13.02.2022 05:10 -0,2 C -1,1 C -3,9 C 86 % 1018,2 hPa 0,0 l/m 0 min 0 min 0 W/m 6,4 km/h (2 Bft) 100,00 %
13.02.2022 05:12 -0,2 C -1,1 C -3,9 C 86 % 1018,2 hPa 0,0 l/m 0 min 0 min 0 W/m 6,4 km/h (2 Bft) 100,00 %
13.02.2022 05:14 -0,2 C -1,1 C -3,9 C 86 % 1018,1 hPa 0,0 l/m 0 min 0 min 0 W/m 16,1 km/h (3 Bft) 97,87 %
13.02.2022 05:16 -0,2 C -1,1 C -3,9 C 86 % 1018,0 hPa 0,0 l/m 0 min 0 min 0 W/m 12,9 km/h (3 Bft) 97,87 %
13.02.2022 05:18 -0,2 C -1,1 C -3,9 C 86 % 1018,0 hPa 0,0 l/m 0 min 0 min 0 W/m 19,3 km/h (3 Bft) 100,00 %
13.02.2022 05:20 -0,2 C -1,1 C -3,9 C 86 % 1018,0 hPa 0,0 l/m 0 min 0 min 0 W/m 19,3 km/h (3 Bft) 100,00 %
13.02.2022 05:22 -0,3 C -1,1 C -3,9 C 86 % 1018,0 hPa 0,0 l/m 0 min 0 min 0 W/m 16,1 km/h (3 Bft) 100,00 %
13.02.2022 05:24 -0,3 C -1,1 C -3,9 C 86 % 1018,0 hPa 0,0 l/m 0 min 0 min 0 W/m 12,9 km/h (3 Bft) 100,00 %
13.02.2022 05:26 -0,3 C -1,1 C -3,9 C 86 % 1017,9 hPa 0,0 l/m 0 min 0 min 0 W/m 16,1 km/h (3 Bft) 97,87 %
13.02.2022 05:28 -0,3 C -1,1 C -3,9 C 86 % 1017,9 hPa 0,0 l/m 0 min 0 min 0 W/m 19,3 km/h (3 Bft) 100,00 %
13.02.2022 05:30 -0,3 C -1,1 C -3,9 C 86 % 1017,9 hPa 0,0 l/m 0 min 0 min 0 W/m 12,9 km/h (3 Bft) 100,00 %
13.02.2022 05:32 -0,3 C -1,1 C -3,9 C 86 % 1017,9 hPa 0,0 l/m 0 min 0 min 0 W/m 22,5 km/h (4 Bft) 100,00 %
13.02.2022 05:34 -0,3 C -1,1 C -3,9 C 87 % 1017,8 hPa 0,0 l/m 0 min 0 min 0 W/m 16,1 km/h (3 Bft) 100,00 %
13.02.2022 05:36 -0,3 C -1,1 C -3,9 C 87 % 1017,8 hPa 0,0 l/m 0 min 0 min 0 W/m 16,1 km/h (3 Bft) 100,00 %
13.02.2022 05:38 -0,3 C -1,1 C -3,9 C 87 % 1017,8 hPa 0,0 l/m 0 min 0 min 0 W/m 16,1 km/h (3 Bft) 100,00 %
13.02.2022 05:40 -0,3 C -1,1 C -3,9 C 87 % 1017,7 hPa 0,0 l/m 0 min 0 min 0 W/m 12,9 km/h (3 Bft) 95,74 %
13.02.2022 05:42 -0,4 C -1,1 C -3,9 C 87 % 1017,8 hPa 0,0 l/m 0 min 0 min 0 W/m 16,1 km/h (3 Bft) 100,00 %
13.02.2022 05:44 -0,3 C -1,1 C -3,9 C 87 % 1017,8 hPa 0,0 l/m 0 min 0 min 0 W/m 22,5 km/h (4 Bft) 100,00 %
13.02.2022 05:46 -0,4 C -1,1 C -3,9 C 87 % 1017,7 hPa 0,0 l/m 0 min 0 min 0 W/m 22,5 km/h (4 Bft) 100,00 %
13.02.2022 05:48 -0,4 C -1,1 C -3,9 C 87 % 1017,7 hPa 0,0 l/m 0 min 0 min 0 W/m 16,1 km/h (3 Bft) 97,87 %
13.02.2022 05:50 -0,4 C -1,1 C -3,9 C 87 % 1017,7 hPa 0,0 l/m 0 min 0 min 0 W/m 19,3 km/h (3 Bft) 97,87 %
13.02.2022 05:52 -0,4 C -1,1 C -3,9 C 87 % 1017,6 hPa 0,0 l/m 0 min 0 min 0 W/m 16,1 km/h (3 Bft) 95,74 %
13.02.2022 05:54 -0,4 C -1,1 C -3,9 C 87 % 1017,7 hPa 0,0 l/m 0 min 0 min 0 W/m 16,1 km/h (3 Bft) 95,74 %
13.02.2022 05:56 -0,4 C -1,1 C -3,9 C 87 % 1017,6 hPa 0,0 l/m 0 min 0 min 0 W/m 16,1 km/h (3 Bft) 95,65 %
13.02.2022 05:58 -0,4 C -1,1 C -3,9 C 87 % 1017,6 hPa 0,0 l/m 0 min 0 min 0 W/m 12,9 km/h (3 Bft) 95,74 %
13.02.2022 06:00 -0,4 C -1,1 C -3,9 C 87 % 1017,6 hPa 0,0 l/m 0 min 0 min 0 W/m 16,1 km/h (3 Bft) 93,62 %
13.02.2022 06:02 -0,4 C -1,1 C -3,9 C 87 % 1017,6 hPa 0,0 l/m 0 min 0 min 0 W/m 12,9 km/h (3 Bft) 95,74 %
13.02.2022 06:04 -0,4 C -1,1 C -3,9 C 87 % 1017,6 hPa 0,0 l/m 0 min 0 min 0 W/m 19,3 km/h (3 Bft) 95,74 %
13.02.2022 06:08 -0,4 C -1,1 C -3,9 C 87 % 1017,5 hPa 0,0 l/m 0 min 0 min 0 W/m 19,3 km/h (3 Bft) 96,00 %
13.02.2022 06:10 -0,4 C -1,1 C -3,9 C 87 % 1017,4 hPa 0,0 l/m 0 min 0 min 0 W/m 19,3 km/h (3 Bft) 93,62 %
13.02.2022 06:12 -0,4 C -1,1 C -3,9 C 87 % 1017,4 hPa 0,0 l/m 0 min 0 min 0 W/m 16,1 km/h (3 Bft) 95,74 %
13.02.2022 06:14 -0,4 C -1,1 C -3,9 C 87 % 1017,4 hPa 0,0 l/m 0 min 0 min 0 W/m 19,3 km/h (3 Bft) 95,65 %
13.02.2022 06:16 -0,4 C -1,1 C -3,9 C 87 % 1017,3 hPa 0,0 l/m 0 min 0 min 0 W/m 12,9 km/h (3 Bft) 97,87 %
13.02.2022 06:18 -0,4 C -1,1 C -3,9 C 87 % 1017,3 hPa 0,0 l/m 0 min 0 min 0 W/m 12,9 km/h (3 Bft) 95,74 %
13.02.2022 06:20 -0,4 C -1,1 C -3,9 C 87 % 1017,3 hPa 0,0 l/m 0 min 0 min 0 W/m 16,1 km/h (3 Bft) 97,87 %
13.02.2022 06:22 -0,4 C -1,1 C -3,9 C 87 % 1017,4 hPa 0,0 l/m 0 min 0 min 0 W/m 16,1 km/h (3 Bft) 97,87 %
13.02.2022 06:24 -0,4 C -1,1 C -3,9 C 87 % 1017,3 hPa 0,0 l/m 0 min 0 min 0 W/m 12,9 km/h (3 Bft) 97,83 %
13.02.2022 06:26 -0,5 C -1,1 C -3,9 C 87 % 1017,3 hPa 0,0 l/m 0 min 0 min 0 W/m 12,9 km/h (3 Bft) 95,74 %
13.02.2022 06:28 -0,5 C -1,1 C -3,9 C 87 % 1017,3 hPa 0,0 l/m 0 min 0 min 0 W/m 19,3 km/h (3 Bft) 93,62 %
13.02.2022 06:30 -0,5 C -1,1 C -3,9 C 87 % 1017,3 hPa 0,0 l/m 0 min 0 min 0 W/m 19,3 km/h (3 Bft) 95,74 %
13.02.2022 06:32 -0,5 C -1,1 C -3,9 C 87 % 1017,3 hPa 0,0 l/m 0 min 0 min 0 W/m 12,9 km/h (3 Bft) 95,74 %
13.02.2022 06:34 -0,5 C -1,1 C -3,9 C 87 % 1017,3 hPa 0,0 l/m 0 min 0 min 0 W/m 12,9 km/h (3 Bft) 97,87 %
13.02.2022 06:36 -0,5 C -1,1 C -3,9 C 87 % 1017,2 hPa 0,0 l/m 0 min 0 min 0 W/m 25,7 km/h (4 Bft) 97,83 %
13.02.2022 06:38 -0,5 C -1,1 C -3,9 C 87 % 1017,2 hPa 0,0 l/m 0 min 0 min 0 W/m 12,9 km/h (3 Bft) 97,87 %
13.02.2022 06:40 -0,5 C -1,1 C -3,9 C 87 % 1017,2 hPa 0,0 l/m 0 min 0 min 0 W/m 16,1 km/h (3 Bft) 97,87 %
13.02.2022 06:42 -0,5 C -1,1 C -3,9 C 87 % 1017,2 hPa 0,0 l/m 0 min 0 min 0 W/m 12,9 km/h (3 Bft) 97,87 %
13.02.2022 06:44 -0,5 C -1,1 C -3,9 C 87 % 1017,1 hPa 0,0 l/m 0 min 0 min 0 W/m 22,5 km/h (4 Bft) 97,87 %
13.02.2022 06:46 -0,5 C -1,1 C -3,9 C 87 % 1017,1 hPa 0,0 l/m 0 min 0 min 0 W/m 16,1 km/h (3 Bft) 97,87 %
13.02.2022 06:48 -0,5 C -1,1 C -3,9 C 87 % 1017,0 hPa 0,0 l/m 0 min 0 min 0 W/m 16,1 km/h (3 Bft) 97,83 %
13.02.2022 06:50 -0,5 C -1,1 C -3,9 C 87 % 1017,0 hPa 0,0 l/m 0 min 0 min 0 W/m 19,3 km/h (3 Bft) 55,32 %
13.02.2022 06:52 -0,4 C -1,1 C -3,9 C 87 % 1017,0 hPa 0,0 l/m 0 min 0 min 0 W/m 12,9 km/h (3 Bft) 97,83 %
13.02.2022 06:54 -0,4 C -1,1 C -3,9 C 87 % 1016,9 hPa 0,0 l/m 0 min 0 min 0 W/m 19,3 km/h (3 Bft) 97,87 %
13.02.2022 06:56 -0,4 C -1,1 C -3,9 C 87 % 1017,0 hPa 0,0 l/m 0 min 0 min 0 W/m 19,3 km/h (3 Bft) 95,74 %
13.02.2022 06:58 -0,4 C -1,1 C -3,9 C 87 % 1016,9 hPa 0,0 l/m 0 min 0 min 0 W/m 22,5 km/h (4 Bft) 97,87 %
13.02.2022 07:00 -0,4 C -1,1 C -3,9 C 87 % 1017,0 hPa 0,0 l/m 0 min 0 min 0 W/m 22,5 km/h (4 Bft) 97,83 %
13.02.2022 07:02 -0,4 C -1,1 C -3,9 C 87 % 1017,0 hPa 0,0 l/m 0 min 0 min 0 W/m 19,3 km/h (3 Bft) 97,87 %
13.02.2022 07:04 -0,4 C -1,1 C -3,9 C 87 % 1017,0 hPa 0,0 l/m 0 min 0 min 0 W/m 16,1 km/h (3 Bft) 97,87 %
13.02.2022 07:06 -0,4 C -1,1 C -3,9 C 87 % 1017,0 hPa 0,0 l/m 0 min 0 min 0 W/m 16,1 km/h (3 Bft) 95,74 %
13.02.2022 07:08 -0,4 C -1,1 C -3,9 C 87 % 1017,0 hPa 0,0 l/m 0 min 0 min 0 W/m 12,9 km/h (3 Bft) 97,87 %
13.02.2022 07:10 -0,4 C -1,1 C -3,9 C 87 % 1017,1 hPa 0,0 l/m 0 min 0 min 0 W/m 16,1 km/h (3 Bft) 97,87 %
13.02.2022 07:12 -0,4 C -1,1 C -3,9 C 86 % 1017,1 hPa 0,0 l/m 0 min 0 min 0 W/m 16,1 km/h (3 Bft) 97,83 %
13.02.2022 07:14 -0,4 C -1,1 C -3,9 C 86 % 1017,0 hPa 0,0 l/m 0 min 0 min 0 W/m 16,1 km/h (3 Bft) 97,87 %
13.02.2022 07:16 -0,4 C -1,1 C -3,9 C 86 % 1017,1 hPa 0,0 l/m 0 min 0 min 0 W/m 19,3 km/h (3 Bft) 97,87 %
13.02.2022 07:18 -0,4 C -1,1 C -3,9 C 86 % 1017,0 hPa 0,0 l/m 0 min 0 min 0 W/m 12,9 km/h (3 Bft) 95,74 %
13.02.2022 07:20 -0,4 C -1,1 C -3,9 C 87 % 1017,1 hPa 0,0 l/m 0 min 0 min 0 W/m 16,1 km/h (3 Bft) 97,87 %
13.02.2022 07:22 -0,4 C -1,1 C -3,9 C 87 % 1017,1 hPa 0,0 l/m 0 min 0 min 0 W/m 16,1 km/h (3 Bft) 97,87 %
13.02.2022 07:24 -0,4 C -1,1 C -3,9 C 87 % 1017,0 hPa 0,0 l/m 0 min 0 min 0 W/m 12,9 km/h (3 Bft) 100,00 %
13.02.2022 07:26 -0,4 C -1,1 C -3,9 C 87 % 1017,0 hPa 0,0 l/m 0 min 0 min 0 W/m 12,9 km/h (3 Bft) 100,00 %
13.02.2022 07:28 -0,4 C -1,1 C -3,9 C 87 % 1016,9 hPa 0,0 l/m 0 min 0 min 0 W/m 12,9 km/h (3 Bft) 100,00 %
13.02.2022 07:30 -0,4 C -1,1 C -3,9 C 87 % 1017,0 hPa 0,0 l/m 0 min 0 min 0 W/m 16,1 km/h (3 Bft) 97,87 %
13.02.2022 07:32 -0,4 C -1,1 C -3,9 C 87 % 1017,0 hPa 0,0 l/m 0 min 0 min 0 W/m 12,9 km/h (3 Bft) 100,00 %
13.02.2022 07:34 -0,4 C -1,1 C -3,9 C 87 % 1017,0 hPa 0,0 l/m 0 min 0 min 0 W/m 12,9 km/h (3 Bft) 97,87 %
13.02.2022 07:36 -0,4 C -1,1 C -3,9 C 87 % 1017,0 hPa 0,0 l/m 0 min 0 min 0 W/m 16,1 km/h (3 Bft) 100,00 %
13.02.2022 07:38 -0,5 C -1,1 C -3,9 C 87 % 1017,0 hPa 0,0 l/m 0 min 0 min 0 W/m 16,1 km/h (3 Bft) 95,74 %
13.02.2022 07:40 -0,5 C -1,1 C -3,9 C 87 % 1016,9 hPa 0,0 l/m 0 min 0 min 0 W/m 16,1 km/h (3 Bft) 97,87 %
13.02.2022 07:42 -0,5 C -1,1 C -3,9 C 87 % 1017,0 hPa 0,0 l/m 0 min 0 min 0 W/m 16,1 km/h (3 Bft) 97,87 %
13.02.2022 07:44 -0,5 C -1,1 C -3,9 C 87 % 1016,9 hPa 0,0 l/m 0 min 0 min 0 W/m 12,9 km/h (3 Bft) 97,87 %
13.02.2022 07:46 -0,5 C -1,1 C -3,9 C 87 % 1016,9 hPa 0,0 l/m 0 min 0 min 0 W/m 16,1 km/h (3 Bft) 97,37 %
13.02.2022 07:48 -0,5 C -1,1 C -3,9 C 87 % 1016,9 hPa 0,0 l/m 0 min 0 min 0 W/m 12,9 km/h (3 Bft) 97,87 %
13.02.2022 07:50 -0,6 C -1,1 C -3,9 C 87 % 1016,9 hPa 0,0 l/m 0 min 0 min 0 W/m 16,1 km/h (3 Bft) 97,83 %
13.02.2022 07:52 -0,5 C -1,1 C -3,9 C 87 % 1016,8 hPa 0,0 l/m 0 min 0 min 5 W/m 19,3 km/h (3 Bft) 97,87 %
13.02.2022 07:54 -0,5 C -1,1 C -3,9 C 87 % 1016,8 hPa 0,0 l/m 0 min 0 min 5 W/m 19,3 km/h (3 Bft) 97,87 %
13.02.2022 07:56 -0,6 C -1,1 C -3,9 C 87 % 1016,8 hPa 0,0 l/m 0 min 0 min 7 W/m 19,3 km/h (3 Bft) 97,87 %
13.02.2022 07:58 -0,6 C -1,1 C -3,9 C 87 % 1016,8 hPa 0,0 l/m 0 min 0 min 7 W/m 16,1 km/h (3 Bft) 95,74 %
13.02.2022 08:00 -0,6 C -1,1 C -3,9 C 87 % 1016,9 hPa 0,0 l/m 0 min 0 min 8 W/m 12,9 km/h (3 Bft) 93,62 %
13.02.2022 08:02 -0,5 C -1,1 C -3,9 C 87 % 1016,7 hPa 0,0 l/m 0 min 0 min 10 W/m 12,9 km/h (3 Bft) 97,83 %
13.02.2022 08:04 -0,6 C -1,1 C -3,9 C 87 % 1016,8 hPa 0,0 l/m 0 min 0 min 11 W/m 16,1 km/h (3 Bft) 97,87 %
13.02.2022 08:06 -0,5 C -1,1 C -3,9 C 87 % 1016,7 hPa 0,0 l/m 0 min 0 min 12 W/m 16,1 km/h (3 Bft) 95,74 %
13.02.2022 08:08 -0,5 C -1,1 C -3,9 C 87 % 1016,7 hPa 0,0 l/m 0 min 0 min 14 W/m 19,3 km/h (3 Bft) 97,87 %
13.02.2022 08:10 -0,6 C -1,1 C -3,9 C 87 % 1016,7 hPa 0,0 l/m 0 min 0 min 16 W/m 22,5 km/h (4 Bft) 100,00 %
13.02.2022 08:12 -0,5 C -1,1 C -3,9 C 87 % 1016,7 hPa 0,0 l/m 0 min 0 min 18 W/m 16,1 km/h (3 Bft) 59,57 %
13.02.2022 08:14 -0,5 C -1,1 C -3,9 C 87 % 1016,6 hPa 0,0 l/m 0 min 0 min 19 W/m 22,5 km/h (4 Bft) 88,00 %
13.02.2022 08:16 -0,5 C -1,1 C -3,9 C 87 % 1016,6 hPa 0,0 l/m 0 min 0 min 21 W/m 16,1 km/h (3 Bft) 97,87 %
13.02.2022 08:18 -0,4 C -1,1 C -3,9 C 87 % 1016,5 hPa 0,0 l/m 0 min 0 min 24 W/m 19,3 km/h (3 Bft) 97,87 %
13.02.2022 08:20 -0,4 C -1,1 C -3,9 C 87 % 1016,4 hPa 0,0 l/m 0 min 0 min 25 W/m 22,5 km/h (4 Bft) 97,87 %
13.02.2022 08:22 -0,4 C -0,6 C -3,9 C 87 % 1016,4 hPa 0,0 l/m 0 min 0 min 26 W/m 22,5 km/h (4 Bft) 95,74 %
13.02.2022 08:24 -0,4 C -0,6 C -3,9 C 87 % 1016,4 hPa 0,0 l/m 0 min 0 min 28 W/m 25,7 km/h (4 Bft) 97,87 %
13.02.2022 08:26 -0,3 C -0,6 C -3,9 C 87 % 1016,4 hPa 0,0 l/m 0 min 0 min 30 W/m 22,5 km/h (4 Bft) 97,83 %
13.02.2022 08:28 -0,3 C -0,6 C -3,9 C 87 % 1016,4 hPa 0,0 l/m 0 min 0 min 31 W/m 16,1 km/h (3 Bft) 97,87 %
13.02.2022 08:30 -0,3 C -0,6 C -3,9 C 87 % 1016,4 hPa 0,0 l/m 0 min 0 min 32 W/m 19,3 km/h (3 Bft) 95,74 %
13.02.2022 08:32 -0,3 C -0,6 C -3,3 C 87 % 1016,4 hPa 0,0 l/m 0 min 0 min 33 W/m 16,1 km/h (3 Bft) 97,87 %
13.02.2022 08:34 -0,2 C -0,6 C -3,3 C 87 % 1016,4 hPa 0,0 l/m 0 min 0 min 35 W/m 16,1 km/h (3 Bft) 95,74 %
13.02.2022 08:36 -0,2 C -0,6 C -3,3 C 87 % 1016,3 hPa 0,0 l/m 0 min 0 min 37 W/m 25,7 km/h (4 Bft) 97,96 %
13.02.2022 08:38 -0,2 C -0,6 C -3,3 C 87 % 1016,3 hPa 0,0 l/m 0 min 0 min 39 W/m 19,3 km/h (3 Bft) 97,87 %
13.02.2022 08:40 -0,2 C -0,6 C -3,3 C 87 % 1016,3 hPa 0,0 l/m 0 min 0 min 40 W/m 16,1 km/h (3 Bft) 97,83 %
13.02.2022 08:42 -0,1 C 0,0 C -3,3 C 87 % 1016,3 hPa 0,0 l/m 0 min 0 min 42 W/m 12,9 km/h (3 Bft) 97,87 %
13.02.2022 08:44 -0,1 C 0,0 C -3,3 C 87 % 1016,2 hPa 0,0 l/m 0 min 0 min 45 W/m 16,1 km/h (3 Bft) 97,87 %
13.02.2022 08:46 -0,1 C 0,0 C -3,3 C 87 % 1016,2 hPa 0,0 l/m 0 min 0 min 47 W/m 16,1 km/h (3 Bft) 97,87 %
13.02.2022 08:48 0,0 C 0,0 C -3,3 C 87 % 1016,2 hPa 0,0 l/m 0 min 0 min 50 W/m 22,5 km/h (4 Bft) 97,87 %
13.02.2022 08:50 0,1 C 0,0 C -3,3 C 86 % 1016,3 hPa 0,0 l/m 0 min 0 min 60 W/m 12,9 km/h (3 Bft) 97,87 %
13.02.2022 08:52 0,1 C 0,0 C -3,3 C 86 % 1016,3 hPa 0,0 l/m 2 min 0 min 69 W/m 12,9 km/h (3 Bft) 97,83 %
13.02.2022 08:54 0,1 C 0,0 C -3,3 C 87 % 1016,1 hPa 0,0 l/m 2 min 0 min 82 W/m 19,3 km/h (3 Bft) 100,00 %
13.02.2022 08:56 0,2 C 0,0 C -3,3 C 86 % 1016,2 hPa 0,0 l/m 2 min 0 min 80 W/m 16,1 km/h (3 Bft) 100,00 %
13.02.2022 08:58 0,2 C 0,0 C -2,8 C 86 % 1016,3 hPa 0,0 l/m 0 min 0 min 72 W/m 16,1 km/h (3 Bft) 100,00 %
13.02.2022 09:00 0,3 C 0,6 C -2,8 C 86 % 1016,2 hPa 0,0 l/m 2 min 0 min 78 W/m 16,1 km/h (3 Bft) 97,87 %
13.02.2022 09:02 0,3 C 0,6 C -2,8 C 86 % 1016,1 hPa 0,0 l/m 2 min 0 min 84 W/m 16,1 km/h (3 Bft) 100,00 %
13.02.2022 09:04 0,4 C 0,6 C -2,8 C 86 % 1016,1 hPa 0,0 l/m 2 min 0 min 82 W/m 16,1 km/h (3 Bft) 100,00 %
13.02.2022 09:06 0,5 C 0,6 C -2,8 C 86 % 1016,0 hPa 0,0 l/m 2 min 0 min 87 W/m 22,5 km/h (4 Bft) 100,00 %
13.02.2022 09:08 0,6 C 1,1 C -2,8 C 86 % 1016,1 hPa 0,0 l/m 2 min 0 min 90 W/m 25,7 km/h (4 Bft) 97,87 %
13.02.2022 09:10 0,6 C 1,1 C -2,8 C 86 % 1015,9 hPa 0,0 l/m 2 min 0 min 95 W/m 22,5 km/h (4 Bft) 100,00 %
13.02.2022 09:12 0,6 C 1,1 C -2,8 C 85 % 1015,9 hPa 0,0 l/m 2 min 0 min 93 W/m 16,1 km/h (3 Bft) 100,00 %
13.02.2022 09:14 0,6 C 1,1 C -2,8 C 85 % 1015,9 hPa 0,0 l/m 2 min 0 min 98 W/m 22,5 km/h (4 Bft) 100,00 %
13.02.2022 09:16 0,7 C 1,1 C -2,8 C 85 % 1015,9 hPa 0,0 l/m 2 min 0 min 101 W/m 16,1 km/h (3 Bft) 97,83 %
13.02.2022 09:18 0,8 C 1,1 C -2,8 C 85 % 1015,9 hPa 0,0 l/m 0 min 0 min 89 W/m 19,3 km/h (3 Bft) 100,00 %
13.02.2022 09:20 0,8 C 1,1 C -2,8 C 85 % 1015,9 hPa 0,0 l/m 0 min 0 min 81 W/m 22,5 km/h (4 Bft) 100,00 %
13.02.2022 09:22 0,9 C 1,1 C -2,2 C 85 % 1015,8 hPa 0,0 l/m 0 min 0 min 85 W/m 25,7 km/h (4 Bft) 100,00 %
13.02.2022 09:24 0,9 C 1,7 C -2,2 C 85 % 1015,8 hPa 0,0 l/m 0 min 0 min 86 W/m 29,0 km/h (5 Bft) 100,00 %
13.02.2022 09:26 1,0 C 1,7 C -2,2 C 84 % 1015,8 hPa 0,0 l/m 0 min 0 min 94 W/m 22,5 km/h (4 Bft) 97,87 %
13.02.2022 09:28 1,1 C 1,7 C -2,2 C 84 % 1015,9 hPa 0,0 l/m 0 min 0 min 105 W/m 22,5 km/h (4 Bft) 97,83 %
13.02.2022 09:30 1,1 C 1,7 C -2,2 C 84 % 1015,9 hPa 0,0 l/m 0 min 0 min 103 W/m 25,7 km/h (4 Bft) 97,87 %
13.02.2022 09:32 1,2 C 1,7 C -2,2 C 84 % 1015,9 hPa 0,0 l/m 0 min 0 min 87 W/m 22,5 km/h (4 Bft) 97,87 %
13.02.2022 09:34 1,2 C 1,7 C -2,2 C 84 % 1015,9 hPa 0,0 l/m 0 min 0 min 94 W/m 19,3 km/h (3 Bft) 95,74 %
13.02.2022 09:36 1,3 C 1,7 C -2,2 C 84 % 1015,8 hPa 0,0 l/m 0 min 0 min 102 W/m 19,3 km/h (3 Bft) 95,74 %
13.02.2022 09:38 1,3 C 2,2 C -2,2 C 84 % 1015,9 hPa 0,0 l/m 0 min 0 min 113 W/m 25,7 km/h (4 Bft) 95,74 %
13.02.2022 09:40 1,4 C 2,2 C -2,2 C 83 % 1015,8 hPa 0,0 l/m 0 min 0 min 103 W/m 19,3 km/h (3 Bft) 95,65 %
13.02.2022 09:42 1,4 C 2,2 C -2,2 C 83 % 1015,8 hPa 0,0 l/m 0 min 0 min 110 W/m 12,9 km/h (3 Bft) 68,09 %
13.02.2022 09:44 1,5 C 2,2 C -1,7 C 83 % 1015,8 hPa 0,0 l/m 2 min 0 min 128 W/m 25,7 km/h (4 Bft) 81,82 %
13.02.2022 09:46 1,6 C 2,2 C -1,7 C 83 % 1015,8 hPa 0,0 l/m 2 min 0 min 175 W/m 16,1 km/h (3 Bft) 93,62 %
13.02.2022 09:48 1,6 C 2,8 C -1,7 C 83 % 1015,8 hPa 0,0 l/m 2 min 0 min 188 W/m 22,5 km/h (4 Bft) 95,74 %
13.02.2022 09:50 1,7 C 2,8 C -1,7 C 83 % 1015,8 hPa 0,0 l/m 2 min 0 min 204 W/m 16,1 km/h (3 Bft) 95,74 %
13.02.2022 09:52 1,8 C 3,3 C -1,7 C 83 % 1015,8 hPa 0,0 l/m 2 min 0 min 214 W/m 16,1 km/h (3 Bft) 93,48 %
13.02.2022 09:54 1,9 C 3,3 C -1,7 C 82 % 1015,8 hPa 0,0 l/m 2 min 0 min 183 W/m 19,3 km/h (3 Bft) 95,74 %
13.02.2022 09:56 1,9 C 3,9 C -1,7 C 82 % 1015,8 hPa 0,0 l/m 2 min 0 min 152 W/m 25,7 km/h (4 Bft) 95,74 %
13.02.2022 09:58 2,1 C 3,9 C -1,1 C 82 % 1015,8 hPa 0,0 l/m 0 min 0 min 134 W/m 22,5 km/h (4 Bft) 95,74 %
13.02.2022 10:00 2,1 C 3,9 C -1,1 C 82 % 1015,8 hPa 0,0 l/m 2 min 0 min 148 W/m 19,3 km/h (3 Bft) 91,49 %
13.02.2022 10:02 2,2 C 4,4 C -1,1 C 82 % 1015,8 hPa 0,0 l/m 2 min 0 min 185 W/m 12,9 km/h (3 Bft) 91,49 %
13.02.2022 10:04 2,3 C 4,4 C -1,1 C 82 % 1015,7 hPa 0,0 l/m 2 min 0 min 223 W/m 16,1 km/h (3 Bft) 97,83 %
13.02.2022 10:06 2,3 C 4,4 C -1,1 C 81 % 1015,7 hPa 0,0 l/m 2 min 0 min 231 W/m 19,3 km/h (3 Bft) 95,74 %
13.02.2022 10:08 2,4 C 4,4 C -1,1 C 81 % 1015,6 hPa 0,0 l/m 2 min 0 min 255 W/m 19,3 km/h (3 Bft) 97,83 %
13.02.2022 10:10 2,5 C 4,4 C -1,1 C 81 % 1015,7 hPa 0,0 l/m 2 min 0 min 263 W/m 22,5 km/h (4 Bft) 97,87 %
13.02.2022 10:12 2,6 C 5,0 C -1,1 C 80 % 1015,6 hPa 0,0 l/m 2 min 0 min 256 W/m 22,5 km/h (4 Bft) 97,87 %
13.02.2022 10:14 2,7 C 5,0 C -1,1 C 80 % 1015,6 hPa 0,0 l/m 2 min 0 min 230 W/m 12,9 km/h (3 Bft) 97,83 %
13.02.2022 10:16 2,8 C 5,0 C -0,6 C 80 % 1015,6 hPa 0,0 l/m 2 min 0 min 200 W/m 19,3 km/h (3 Bft) 100,00 %
13.02.2022 10:18 2,8 C 5,0 C -0,6 C 80 % 1015,6 hPa 0,0 l/m 2 min 0 min 199 W/m 19,3 km/h (3 Bft) 100,00 %
13.02.2022 10:20 2,9 C 5,6 C -0,6 C 79 % 1015,6 hPa 0,0 l/m 2 min 0 min 233 W/m 22,5 km/h (4 Bft) 100,00 %
13.02.2022 10:22 3,0 C 6,1 C -0,6 C 79 % 1015,5 hPa 0,0 l/m 2 min 0 min 249 W/m 22,5 km/h (4 Bft) 100,00 %
13.02.2022 10:24 3,1 C 6,7 C -0,6 C 79 % 1015,5 hPa 0,0 l/m 2 min 0 min 246 W/m 16,1 km/h (3 Bft) 95,74 %
13.02.2022 10:26 3,2 C 6,7 C -0,6 C 79 % 1015,5 hPa 0,0 l/m 2 min 0 min 251 W/m 25,7 km/h (4 Bft) 100,00 %
13.02.2022 10:28 3,2 C 6,7 C -0,6 C 78 % 1015,5 hPa 0,0 l/m 2 min 0 min 260 W/m 25,7 km/h (4 Bft) 100,00 %
13.02.2022 10:30 3,3 C 7,2 C -0,6 C 78 % 1015,5 hPa 0,0 l/m 2 min 0 min 278 W/m 16,1 km/h (3 Bft) 100,00 %
13.02.2022 10:32 3,4 C 8,3 C -0,6 C 78 % 1015,4 hPa 0,0 l/m 2 min 0 min 248 W/m 16,1 km/h (3 Bft) 100,00 %
13.02.2022 10:34 3,4 C 8,3 C 0,0 C 78 % 1015,4 hPa 0,0 l/m 2 min 0 min 261 W/m 22,5 km/h (4 Bft) 100,00 %
13.02.2022 10:36 3,6 C 8,9 C 0,0 C 77 % 1015,4 hPa 0,0 l/m 2 min 0 min 333 W/m 19,3 km/h (3 Bft) 97,87 %
13.02.2022 10:38 3,7 C 9,4 C 0,0 C 77 % 1015,4 hPa 0,0 l/m 2 min 0 min 340 W/m 19,3 km/h (3 Bft) 100,00 %
13.02.2022 10:40 3,8 C 8,9 C 0,0 C 77 % 1015,4 hPa 0,0 l/m 2 min 0 min 345 W/m 29,0 km/h (5 Bft) 100,00 %
13.02.2022 10:42 3,9 C 9,4 C 0,0 C 76 % 1015,4 hPa 0,0 l/m 2 min 0 min 338 W/m 19,3 km/h (3 Bft) 97,87 %
13.02.2022 10:44 4,0 C 9,4 C 0,0 C 76 % 1015,3 hPa 0,0 l/m 2 min 0 min 334 W/m 22,5 km/h (4 Bft) 100,00 %
13.02.2022 10:46 4,1 C 8,9 C 0,0 C 76 % 1015,3 hPa 0,0 l/m 2 min 0 min 341 W/m 25,7 km/h (4 Bft) 100,00 %
13.02.2022 10:48 4,1 C 8,9 C 0,6 C 75 % 1015,3 hPa 0,0 l/m 2 min 0 min 342 W/m 25,7 km/h (4 Bft) 100,00 %
13.02.2022 10:50 4,2 C 9,4 C 0,6 C 75 % 1015,2 hPa 0,0 l/m 2 min 0 min 346 W/m 25,7 km/h (4 Bft) 100,00 %
13.02.2022 10:52 4,3 C 10,0 C 0,6 C 75 % 1015,2 hPa 0,0 l/m 2 min 0 min 338 W/m 16,1 km/h (3 Bft) 100,00 %
13.02.2022 10:54 4,4 C 9,4 C 0,6 C 75 % 1015,2 hPa 0,0 l/m 2 min 0 min 350 W/m 29,0 km/h (5 Bft) 100,00 %
13.02.2022 10:56 4,5 C 10,0 C 0,6 C 75 % 1015,2 hPa 0,0 l/m 2 min 0 min 363 W/m 19,3 km/h (3 Bft) 100,00 %
13.02.2022 10:58 4,6 C 10,0 C 0,6 C 74 % 1015,2 hPa 0,0 l/m 2 min 0 min 359 W/m 19,3 km/h (3 Bft) 100,00 %
13.02.2022 11:00 4,7 C 10,0 C 1,1 C 74 % 1015,2 hPa 0,0 l/m 2 min 0 min 342 W/m 19,3 km/h (3 Bft) 100,00 %
13.02.2022 11:02 4,7 C 10,6 C 1,1 C 74 % 1015,2 hPa 0,0 l/m 2 min 0 min 361 W/m 16,1 km/h (3 Bft) 100,00 %
13.02.2022 11:04 4,8 C 11,1 C 1,1 C 74 % 1015,2 hPa 0,0 l/m 2 min 0 min 371 W/m 19,3 km/h (3 Bft) 100,00 %
13.02.2022 11:06 4,9 C 10,6 C 1,1 C 74 % 1015,2 hPa 0,0 l/m 2 min 0 min 362 W/m 19,3 km/h (3 Bft) 100,00 %
13.02.2022 11:08 5,0 C 11,1 C 1,1 C 73 % 1015,2 hPa 0,0 l/m 2 min 0 min 345 W/m 19,3 km/h (3 Bft) 100,00 %
13.02.2022 11:10 5,1 C 11,7 C 1,7 C 73 % 1015,2 hPa 0,0 l/m 2 min 0 min 349 W/m 16,1 km/h (3 Bft) 100,00 %
13.02.2022 11:12 5,2 C 11,1 C 1,7 C 73 % 1015,1 hPa 0,0 l/m 2 min 0 min 366 W/m 22,5 km/h (4 Bft) 97,87 %
13.02.2022 11:14 5,3 C 11,7 C 1,7 C 73 % 1015,1 hPa 0,0 l/m 2 min 0 min 380 W/m 12,9 km/h (3 Bft) 100,00 %
13.02.2022 11:16 5,4 C 11,7 C 1,7 C 73 % 1015,1 hPa 0,0 l/m 2 min 0 min 372 W/m 16,1 km/h (3 Bft) 100,00 %
13.02.2022 11:18 5,5 C 11,7 C 1,7 C 72 % 1015,1 hPa 0,0 l/m 2 min 0 min 357 W/m 16,1 km/h (3 Bft) 100,00 %
13.02.2022 11:20 5,6 C 11,7 C 2,2 C 71 % 1015,0 hPa 0,0 l/m 2 min 0 min 355 W/m 19,3 km/h (3 Bft) 100,00 %
13.02.2022 11:22 5,6 C 11,1 C 2,2 C 71 % 1015,0 hPa 0,0 l/m 2 min 0 min 356 W/m 19,3 km/h (3 Bft) 100,00 %
13.02.2022 11:24 5,7 C 10,6 C 2,2 C 71 % 1015,0 hPa 0,0 l/m 2 min 0 min 335 W/m 22,5 km/h (4 Bft) 100,00 %
13.02.2022 11:26 5,7 C 9,4 C 2,2 C 70 % 1014,9 hPa 0,0 l/m 2 min 0 min 293 W/m 22,5 km/h (4 Bft) 100,00 %
13.02.2022 11:28 5,7 C 8,9 C 1,7 C 70 % 1014,9 hPa 0,0 l/m 2 min 0 min 282 W/m 29,0 km/h (5 Bft) 100,00 %
13.02.2022 11:30 5,7 C 8,9 C 2,2 C 70 % 1014,9 hPa 0,0 l/m 2 min 0 min 278 W/m 19,3 km/h (3 Bft) 100,00 %
13.02.2022 11:32 5,7 C 10,0 C 2,2 C 70 % 1014,9 hPa 0,0 l/m 2 min 0 min 355 W/m 19,3 km/h (3 Bft) 100,00 %
13.02.2022 11:34 5,7 C 10,0 C 2,2 C 70 % 1014,8 hPa 0,0 l/m 2 min 0 min 354 W/m 22,5 km/h (4 Bft) 100,00 %
13.02.2022 11:36 5,7 C 10,0 C 2,8 C 70 % 1014,8 hPa 0,0 l/m 2 min 0 min 329 W/m 12,9 km/h (3 Bft) 100,00 %
13.02.2022 11:38 5,7 C 10,6 C 2,8 C 71 % 1014,8 hPa 0,0 l/m 2 min 0 min 371 W/m 19,3 km/h (3 Bft) 97,83 %
13.02.2022 11:40 5,8 C 10,6 C 2,8 C 71 % 1014,8 hPa 0,0 l/m 2 min 0 min 338 W/m 12,9 km/h (3 Bft) 100,00 %
13.02.2022 11:42 5,8 C 10,6 C 3,3 C 71 % 1014,7 hPa 0,0 l/m 2 min 0 min 355 W/m 16,1 km/h (3 Bft) 97,87 %
13.02.2022 11:44 5,9 C 10,0 C 3,9 C 71 % 1014,6 hPa 0,0 l/m 2 min 0 min 372 W/m 19,3 km/h (3 Bft) 100,00 %
13.02.2022 11:46 5,9 C 10,0 C 3,9 C 71 % 1014,5 hPa 0,0 l/m 2 min 0 min 378 W/m 25,7 km/h (4 Bft) 97,87 %
13.02.2022 11:48 6,0 C 9,4 C 3,9 C 70 % 1014,5 hPa 0,0 l/m 2 min 0 min 361 W/m 22,5 km/h (4 Bft) 97,87 %
13.02.2022 11:50 6,1 C 10,0 C 3,9 C 70 % 1014,5 hPa 0,0 l/m 2 min 0 min 318 W/m 19,3 km/h (3 Bft) 95,65 %
13.02.2022 11:52 6,1 C 9,4 C 3,9 C 70 % 1014,4 hPa 0,0 l/m 2 min 0 min 284 W/m 19,3 km/h (3 Bft) 93,62 %
13.02.2022 11:54 6,1 C 8,9 C 3,9 C 70 % 1014,4 hPa 0,0 l/m 2 min 0 min 298 W/m 22,5 km/h (4 Bft) 97,87 %
13.02.2022 11:56 6,2 C 8,3 C 3,9 C 70 % 1014,3 hPa 0,0 l/m 2 min 0 min 276 W/m 22,5 km/h (4 Bft) 97,87 %
13.02.2022 11:58 6,2 C 8,3 C 3,9 C 70 % 1014,3 hPa 0,0 l/m 2 min 0 min 237 W/m 19,3 km/h (3 Bft) 97,87 %
13.02.2022 12:00 6,2 C 8,3 C 3,3 C 69 % 1014,2 hPa 0,0 l/m 2 min 0 min 259 W/m 19,3 km/h (3 Bft) 97,87 %
13.02.2022 12:02 6,2 C 8,9 C 3,3 C 69 % 1014,2 hPa 0,0 l/m 2 min 0 min 225 W/m 19,3 km/h (3 Bft) 93,48 %
13.02.2022 12:04 6,3 C 8,9 C 3,3 C 69 % 1014,2 hPa 0,0 l/m 0 min 0 min 186 W/m 19,3 km/h (3 Bft) 93,62 %
13.02.2022 12:08 6,3 C 8,3 C 3,3 C 69 % 1014,1 hPa 0,0 l/m 0 min 0 min 175 W/m 29,0 km/h (5 Bft) 94,68 %
13.02.2022 12:10 6,4 C 8,3 C 3,3 C 69 % 1014,2 hPa 0,0 l/m 0 min 0 min 175 W/m 19,3 km/h (3 Bft) 95,74 %
13.02.2022 12:12 6,5 C 8,3 C 3,3 C 69 % 1014,1 hPa 0,0 l/m 0 min 0 min 190 W/m 19,3 km/h (3 Bft) 95,65 %
13.02.2022 12:14 6,6 C 8,3 C 3,3 C 69 % 1014,1 hPa 0,0 l/m 2 min 0 min 243 W/m 16,1 km/h (3 Bft) 95,74 %
13.02.2022 12:16 6,6 C 8,3 C 3,9 C 69 % 1014,1 hPa 0,0 l/m 2 min 0 min 240 W/m 19,3 km/h (3 Bft) 93,62 %
13.02.2022 12:18 6,7 C 8,3 C 3,9 C 68 % 1014,0 hPa 0,0 l/m 2 min 0 min 230 W/m 19,3 km/h (3 Bft) 97,87 %
13.02.2022 12:20 6,8 C 8,9 C 4,4 C 68 % 1014,0 hPa 0,0 l/m 2 min 0 min 274 W/m 22,5 km/h (4 Bft) 97,87 %
13.02.2022 12:22 6,8 C 8,9 C 4,4 C 68 % 1013,9 hPa 0,0 l/m 2 min 0 min 268 W/m 19,3 km/h (3 Bft) 95,74 %
13.02.2022 12:24 6,9 C 9,4 C 4,4 C 68 % 1014,0 hPa 0,0 l/m 2 min 0 min 224 W/m 16,1 km/h (3 Bft) 93,48 %
13.02.2022 12:26 6,9 C 10,0 C 4,4 C 68 % 1013,9 hPa 0,0 l/m 2 min 0 min 225 W/m 12,9 km/h (3 Bft) 74,47 %
13.02.2022 12:28 7,1 C 10,0 C 4,4 C 68 % 1013,9 hPa 0,0 l/m 2 min 0 min 235 W/m 12,9 km/h (3 Bft) 78,26 %
13.02.2022 12:30 7,1 C 9,4 C 4,4 C 68 % 1013,9 hPa 0,0 l/m 2 min 0 min 245 W/m 22,5 km/h (4 Bft) 97,87 %
13.02.2022 12:32 7,2 C 8,9 C 4,4 C 67 % 1013,9 hPa 0,0 l/m 2 min 0 min 248 W/m 25,7 km/h (4 Bft) 97,87 %
13.02.2022 12:34 7,3 C 10,0 C 5,0 C 67 % 1013,8 hPa 0,0 l/m 2 min 0 min 268 W/m 12,9 km/h (3 Bft) 97,87 %
13.02.2022 12:36 7,3 C 10,0 C 5,0 C 67 % 1013,8 hPa 0,0 l/m 2 min 0 min 271 W/m 29,0 km/h (5 Bft) 95,65 %
13.02.2022 12:38 7,4 C 10,0 C 4,4 C 67 % 1013,9 hPa 0,0 l/m 2 min 0 min 282 W/m 16,1 km/h (3 Bft) 97,87 %
13.02.2022 12:40 7,5 C 9,4 C 4,4 C 67 % 1013,8 hPa 0,0 l/m 2 min 0 min 266 W/m 25,7 km/h (4 Bft) 95,74 %
13.02.2022 12:42 7,6 C 9,4 C 4,4 C 66 % 1013,7 hPa 0,0 l/m 2 min 0 min 273 W/m 16,1 km/h (3 Bft) 97,87 %
13.02.2022 12:44 7,6 C 9,4 C 4,4 C 66 % 1013,7 hPa 0,0 l/m 2 min 0 min 278 W/m 16,1 km/h (3 Bft) 97,87 %
13.02.2022 12:46 7,7 C 10,0 C 4,4 C 66 % 1013,7 hPa 0,0 l/m 2 min 0 min 288 W/m 19,3 km/h (3 Bft) 97,87 %
13.02.2022 12:48 7,7 C 10,6 C 4,4 C 66 % 1013,6 hPa 0,0 l/m 2 min 0 min 334 W/m 19,3 km/h (3 Bft) 95,65 %
13.02.2022 12:50 7,8 C 10,6 C 3,9 C 66 % 1013,6 hPa 0,0 l/m 2 min 0 min 362 W/m 19,3 km/h (3 Bft) 100,00 %
13.02.2022 12:52 7,8 C 10,6 C 3,9 C 66 % 1013,5 hPa 0,0 l/m 2 min 0 min 350 W/m 19,3 km/h (3 Bft) 97,87 %
13.02.2022 12:54 7,9 C 11,1 C 3,9 C 66 % 1013,6 hPa 0,0 l/m 2 min 0 min 324 W/m 22,5 km/h (4 Bft) 95,74 %
13.02.2022 12:56 7,9 C 11,1 C 3,9 C 66 % 1013,6 hPa 0,0 l/m 2 min 0 min 280 W/m 16,1 km/h (3 Bft) 100,00 %
13.02.2022 12:58 7,9 C 10,6 C 3,9 C 66 % 1013,4 hPa 0,0 l/m 2 min 0 min 279 W/m 25,7 km/h (4 Bft) 100,00 %
13.02.2022 13:00 7,9 C 10,6 C 3,9 C 66 % 1013,4 hPa 0,0 l/m 2 min 0 min 248 W/m 16,1 km/h (3 Bft) 100,00 %
13.02.2022 13:02 8,0 C 11,1 C 3,9 C 66 % 1013,4 hPa 0,0 l/m 2 min 0 min 296 W/m 16,1 km/h (3 Bft) 100,00 %
13.02.2022 13:04 8,0 C 12,8 C 3,9 C 66 % 1013,3 hPa 0,0 l/m 2 min 0 min 409 W/m 16,1 km/h (3 Bft) 97,87 %
13.02.2022 13:06 8,1 C 13,9 C 3,9 C 66 % 1013,2 hPa 0,0 l/m 2 min 0 min 423 W/m 19,3 km/h (3 Bft) 97,87 %
13.02.2022 13:08 8,2 C 13,9 C 3,9 C 66 % 1013,2 hPa 0,0 l/m 2 min 0 min 430 W/m 22,5 km/h (4 Bft) 100,00 %
13.02.2022 13:10 8,2 C 13,9 C 3,9 C 65 % 1013,1 hPa 0,0 l/m 2 min 0 min 415 W/m 19,3 km/h (3 Bft) 100,00 %
13.02.2022 13:12 8,3 C 13,9 C 3,9 C 65 % 1013,1 hPa 0,0 l/m 2 min 0 min 401 W/m 22,5 km/h (4 Bft) 100,00 %
13.02.2022 13:14 8,4 C 14,4 C 4,4 C 66 % 1012,9 hPa 0,0 l/m 2 min 0 min 400 W/m 19,3 km/h (3 Bft) 97,87 %
13.02.2022 13:16 8,4 C 13,9 C 3,9 C 65 % 1012,9 hPa 0,0 l/m 2 min 0 min 381 W/m 16,1 km/h (3 Bft) 100,00 %
13.02.2022 13:18 8,6 C 14,4 C 4,4 C 66 % 1012,8 hPa 0,0 l/m 2 min 0 min 384 W/m 16,1 km/h (3 Bft) 100,00 %
13.02.2022 13:20 8,6 C 15,0 C 4,4 C 65 % 1012,7 hPa 0,0 l/m 2 min 0 min 394 W/m 16,1 km/h (3 Bft) 97,87 %
13.02.2022 13:22 8,7 C 15,0 C 4,4 C 65 % 1012,8 hPa 0,0 l/m 2 min 0 min 410 W/m 16,1 km/h (3 Bft) 97,87 %
13.02.2022 13:24 8,8 C 14,4 C 4,4 C 65 % 1012,7 hPa 0,0 l/m 2 min 0 min 403 W/m 22,5 km/h (4 Bft) 97,83 %
13.02.2022 13:26 8,8 C 13,9 C 4,4 C 64 % 1012,6 hPa 0,0 l/m 2 min 0 min 399 W/m 19,3 km/h (3 Bft) 97,87 %
13.02.2022 13:28 8,8 C 13,9 C 4,4 C 64 % 1012,6 hPa 0,0 l/m 2 min 0 min 368 W/m 19,3 km/h (3 Bft) 97,87 %
13.02.2022 13:30 8,9 C 13,3 C 4,4 C 64 % 1012,5 hPa 0,0 l/m 2 min 0 min 361 W/m 22,5 km/h (4 Bft) 97,87 %
13.02.2022 13:32 8,9 C 13,3 C 4,4 C 64 % 1012,5 hPa 0,0 l/m 2 min 0 min 332 W/m 19,3 km/h (3 Bft) 97,87 %
13.02.2022 13:34 9,0 C 12,8 C 4,4 C 64 % 1012,4 hPa 0,0 l/m 2 min 0 min 339 W/m 25,7 km/h (4 Bft) 97,87 %
13.02.2022 13:36 9,0 C 12,2 C 4,4 C 64 % 1012,3 hPa 0,0 l/m 2 min 0 min 334 W/m 19,3 km/h (3 Bft) 95,65 %
13.02.2022 13:38 9,1 C 12,8 C 4,4 C 64 % 1012,3 hPa 0,0 l/m 2 min 0 min 353 W/m 19,3 km/h (3 Bft) 97,87 %
13.02.2022 13:40 9,1 C 12,8 C 4,4 C 64 % 1012,2 hPa 0,0 l/m 2 min 0 min 346 W/m 22,5 km/h (4 Bft) 97,87 %
13.02.2022 13:42 9,1 C 12,8 C 4,4 C 63 % 1012,2 hPa 0,0 l/m 2 min 0 min 361 W/m 25,7 km/h (4 Bft) 95,74 %
13.02.2022 13:44 9,1 C 13,3 C 4,4 C 63 % 1012,1 hPa 0,0 l/m 2 min 0 min 386 W/m 19,3 km/h (3 Bft) 97,87 %
13.02.2022 13:46 9,2 C 13,9 C 5,0 C 63 % 1012,1 hPa 0,0 l/m 2 min 0 min 385 W/m 16,1 km/h (3 Bft) 97,87 %
13.02.2022 13:48 9,3 C 13,9 C 5,0 C 63 % 1012,0 hPa 0,0 l/m 2 min 0 min 403 W/m 16,1 km/h (3 Bft) 97,83 %
13.02.2022 13:50 9,4 C 13,9 C 5,0 C 63 % 1012,0 hPa 0,0 l/m 2 min 0 min 373 W/m 19,3 km/h (3 Bft) 93,62 %
13.02.2022 13:52 9,4 C 14,4 C 5,0 C 63 % 1011,9 hPa 0,0 l/m 2 min 0 min 382 W/m 16,1 km/h (3 Bft) 95,74 %
13.02.2022 13:54 9,6 C 14,4 C 5,0 C 63 % 1011,9 hPa 0,0 l/m 2 min 0 min 382 W/m 19,3 km/h (3 Bft) 95,74 %
13.02.2022 13:56 9,6 C 14,4 C 5,0 C 62 % 1011,8 hPa 0,0 l/m 2 min 0 min 372 W/m 16,1 km/h (3 Bft) 95,74 %
13.02.2022 13:58 9,7 C 14,4 C 5,0 C 62 % 1011,8 hPa 0,0 l/m 2 min 0 min 364 W/m 16,1 km/h (3 Bft) 95,74 %
13.02.2022 14:00 9,8 C 13,9 C 5,0 C 62 % 1011,6 hPa 0,0 l/m 2 min 0 min 346 W/m 19,3 km/h (3 Bft) 95,65 %
13.02.2022 14:02 9,9 C 13,9 C 5,0 C 62 % 1011,7 hPa 0,0 l/m 2 min 0 min 344 W/m 19,3 km/h (3 Bft) 95,74 %
13.02.2022 14:04 10,0 C 13,3 C 5,0 C 61 % 1011,5 hPa 0,0 l/m 2 min 0 min 335 W/m 16,1 km/h (3 Bft) 97,87 %
13.02.2022 14:06 10,1 C 13,3 C 5,0 C 61 % 1011,5 hPa 0,0 l/m 2 min 0 min 322 W/m 19,3 km/h (3 Bft) 93,62 %
13.02.2022 14:08 10,1 C 12,8 C 5,0 C 61 % 1011,5 hPa 0,0 l/m 2 min 0 min 276 W/m 19,3 km/h (3 Bft) 95,74 %
13.02.2022 14:10 10,1 C 12,8 C 5,0 C 61 % 1011,4 hPa 0,0 l/m 2 min 0 min 284 W/m 19,3 km/h (3 Bft) 95,65 %
13.02.2022 14:12 10,2 C 12,8 C 5,0 C 61 % 1011,4 hPa 0,0 l/m 2 min 0 min 264 W/m 12,9 km/h (3 Bft) 95,74 %
13.02.2022 14:14 10,2 C 12,2 C 5,0 C 61 % 1011,3 hPa 0,0 l/m 2 min 0 min 252 W/m 19,3 km/h (3 Bft) 95,74 %
13.02.2022 14:16 10,2 C 12,8 C 5,0 C 62 % 1011,3 hPa 0,0 l/m 2 min 0 min 275 W/m 12,9 km/h (3 Bft) 95,74 %
13.02.2022 14:18 10,3 C 12,8 C 5,6 C 62 % 1011,2 hPa 0,0 l/m 2 min 0 min 294 W/m 16,1 km/h (3 Bft) 95,74 %
13.02.2022 14:20 10,3 C 12,8 C 5,6 C 61 % 1011,2 hPa 0,0 l/m 2 min 0 min 291 W/m 12,9 km/h (3 Bft) 93,62 %
13.02.2022 14:22 10,4 C 12,8 C 5,6 C 60 % 1011,2 hPa 0,0 l/m 2 min 0 min 294 W/m 12,9 km/h (3 Bft) 95,65 %
13.02.2022 14:24 10,4 C 12,8 C 5,6 C 60 % 1011,2 hPa 0,0 l/m 2 min 0 min 309 W/m 16,1 km/h (3 Bft) 93,62 %
13.02.2022 14:26 10,5 C 12,2 C 5,6 C 60 % 1011,1 hPa 0,0 l/m 2 min 0 min 295 W/m 19,3 km/h (3 Bft) 97,87 %
13.02.2022 14:28 10,5 C 12,2 C 5,6 C 60 % 1011,1 hPa 0,0 l/m 2 min 0 min 278 W/m 25,7 km/h (4 Bft) 97,87 %
13.02.2022 14:30 10,5 C 11,7 C 5,6 C 60 % 1011,1 hPa 0,0 l/m 2 min 0 min 296 W/m 22,5 km/h (4 Bft) 95,74 %
13.02.2022 14:32 10,6 C 12,2 C 5,6 C 60 % 1011,0 hPa 0,0 l/m 2 min 0 min 291 W/m 12,9 km/h (3 Bft) 97,87 %
13.02.2022 14:34 10,6 C 12,8 C 5,6 C 60 % 1011,0 hPa 0,0 l/m 2 min 0 min 329 W/m 19,3 km/h (3 Bft) 97,83 %
13.02.2022 14:36 10,6 C 13,9 C 5,6 C 60 % 1011,0 hPa 0,0 l/m 2 min 0 min 406 W/m 19,3 km/h (3 Bft) 97,87 %
13.02.2022 14:38 10,7 C 13,9 C 5,6 C 61 % 1010,9 hPa 0,0 l/m 2 min 0 min 405 W/m 19,3 km/h (3 Bft) 97,87 %
13.02.2022 14:40 10,8 C 14,4 C 6,1 C 61 % 1010,8 hPa 0,0 l/m 2 min 0 min 385 W/m 12,9 km/h (3 Bft) 95,74 %
13.02.2022 14:42 10,8 C 14,4 C 6,1 C 61 % 1010,7 hPa 0,0 l/m 2 min 0 min 348 W/m 19,3 km/h (3 Bft) 95,74 %
13.02.2022 14:44 10,9 C 14,4 C 6,1 C 61 % 1010,6 hPa 0,0 l/m 2 min 0 min 358 W/m 12,9 km/h (3 Bft) 95,74 %
13.02.2022 14:46 11,1 C 14,4 C 6,1 C 61 % 1010,7 hPa 0,0 l/m 2 min 0 min 355 W/m 12,9 km/h (3 Bft) 95,65 %
13.02.2022 14:48 11,1 C 13,9 C 6,1 C 61 % 1010,6 hPa 0,0 l/m 2 min 0 min 333 W/m 22,5 km/h (4 Bft) 95,74 %
13.02.2022 14:50 11,2 C 13,9 C 6,1 C 61 % 1010,6 hPa 0,0 l/m 2 min 0 min 324 W/m 16,1 km/h (3 Bft) 97,87 %
13.02.2022 14:52 11,3 C 13,9 C 6,1 C 61 % 1010,5 hPa 0,0 l/m 2 min 0 min 300 W/m 19,3 km/h (3 Bft) 97,87 %
13.02.2022 14:54 11,3 C 13,3 C 6,1 C 61 % 1010,5 hPa 0,0 l/m 2 min 0 min 297 W/m 25,7 km/h (4 Bft) 95,74 %
13.02.2022 14:56 11,4 C 13,9 C 6,1 C 60 % 1010,4 hPa 0,0 l/m 2 min 0 min 312 W/m 19,3 km/h (3 Bft) 97,87 %
13.02.2022 14:58 11,4 C 13,9 C 6,1 C 60 % 1010,4 hPa 0,0 l/m 2 min 0 min 324 W/m 19,3 km/h (3 Bft) 95,65 %
13.02.2022 15:00 11,4 C 13,9 C 6,7 C 60 % 1010,3 hPa 0,0 l/m 2 min 0 min 333 W/m 25,7 km/h (4 Bft) 97,87 %
13.02.2022 15:02 11,5 C 13,9 C 6,7 C 61 % 1010,3 hPa 0,0 l/m 2 min 0 min 342 W/m 16,1 km/h (3 Bft) 97,87 %
13.02.2022 15:04 11,6 C 13,9 C 6,7 C 61 % 1010,3 hPa 0,0 l/m 2 min 0 min 324 W/m 19,3 km/h (3 Bft) 97,87 %
13.02.2022 15:06 11,6 C 13,9 C 6,7 C 61 % 1010,2 hPa 0,0 l/m 2 min 0 min 318 W/m 16,1 km/h (3 Bft) 97,87 %
13.02.2022 15:08 11,7 C 13,3 C 6,7 C 61 % 1010,2 hPa 0,0 l/m 2 min 0 min 308 W/m 22,5 km/h (4 Bft) 97,87 %
13.02.2022 15:10 11,8 C 13,9 C 6,7 C 61 % 1010,1 hPa 0,0 l/m 2 min 0 min 299 W/m 19,3 km/h (3 Bft) 97,83 %
13.02.2022 15:12 11,8 C 13,9 C 6,7 C 61 % 1010,1 hPa 0,0 l/m 2 min 0 min 297 W/m 29,0 km/h (5 Bft) 95,74 %
13.02.2022 15:14 11,8 C 13,3 C 6,7 C 61 % 1010,0 hPa 0,0 l/m 2 min 0 min 309 W/m 19,3 km/h (3 Bft) 97,87 %
13.02.2022 15:16 11,8 C 12,8 C 6,7 C 61 % 1010,0 hPa 0,0 l/m 2 min 0 min 321 W/m 38,6 km/h (5 Bft) 93,62 %
13.02.2022 15:18 11,8 C 13,3 C 6,7 C 62 % 1009,9 hPa 0,0 l/m 2 min 0 min 304 W/m 38,6 km/h (5 Bft) 97,87 %
13.02.2022 15:20 11,8 C 13,3 C 6,7 C 63 % 1009,8 hPa 0,0 l/m 2 min 0 min 291 W/m 29,0 km/h (5 Bft) 100,00 %
13.02.2022 15:22 11,8 C 13,3 C 6,7 C 63 % 1009,7 hPa 0,0 l/m 2 min 0 min 265 W/m 32,2 km/h (5 Bft) 100,00 %
13.02.2022 15:24 11,7 C 12,8 C 6,7 C 63 % 1009,7 hPa 0,0 l/m 2 min 0 min 251 W/m 32,2 km/h (5 Bft) 100,00 %
13.02.2022 15:26 11,7 C 12,8 C 6,1 C 63 % 1009,6 hPa 0,0 l/m 2 min 0 min 215 W/m 16,1 km/h (3 Bft) 97,67 %
13.02.2022 15:28 11,6 C 12,2 C 6,1 C 64 % 1009,6 hPa 0,0 l/m 2 min 0 min 238 W/m 41,8 km/h (6 Bft) 100,00 %
13.02.2022 15:30 11,6 C 12,8 C 6,1 C 63 % 1009,5 hPa 0,0 l/m 2 min 0 min 244 W/m 22,5 km/h (4 Bft) 100,00 %
13.02.2022 15:32 11,6 C 12,8 C 6,1 C 64 % 1009,4 hPa 0,0 l/m 2 min 0 min 244 W/m 29,0 km/h (5 Bft) 100,00 %
13.02.2022 15:34 11,6 C 13,3 C 6,1 C 63 % 1009,4 hPa 0,0 l/m 2 min 0 min 247 W/m 25,7 km/h (4 Bft) 100,00 %
13.02.2022 15:36 11,6 C 13,3 C 6,1 C 64 % 1009,4 hPa 0,0 l/m 2 min 0 min 246 W/m 25,7 km/h (4 Bft) 98,31 %
13.02.2022 15:38 11,6 C 13,3 C 6,1 C 64 % 1009,4 hPa 0,0 l/m 2 min 0 min 232 W/m 19,3 km/h (3 Bft) 100,00 %
13.02.2022 15:40 11,6 C 13,3 C 6,1 C 64 % 1009,4 hPa 0,0 l/m 2 min 0 min 238 W/m 19,3 km/h (3 Bft) 100,00 %
13.02.2022 15:42 11,6 C 12,8 C 6,1 C 64 % 1009,3 hPa 0,0 l/m 2 min 0 min 228 W/m 32,2 km/h (5 Bft) 100,00 %
13.02.2022 15:44 11,6 C 12,2 C 6,1 C 64 % 1009,3 hPa 0,0 l/m 2 min 0 min 224 W/m 29,0 km/h (5 Bft) 98,25 %
13.02.2022 15:46 11,6 C 11,7 C 6,1 C 64 % 1009,2 hPa 0,0 l/m 2 min 0 min 206 W/m 29,0 km/h (5 Bft) 97,87 %
13.02.2022 15:48 11,6 C 11,7 C 6,1 C 65 % 1009,3 hPa 0,0 l/m 2 min 0 min 180 W/m 22,5 km/h (4 Bft) 100,00 %
13.02.2022 15:50 11,5 C 11,1 C 6,1 C 65 % 1009,2 hPa 0,0 l/m 2 min 0 min 186 W/m 22,5 km/h (4 Bft) 97,87 %
13.02.2022 15:52 11,5 C 11,1 C 6,1 C 65 % 1009,2 hPa 0,0 l/m 2 min 0 min 156 W/m 35,4 km/h (5 Bft) 100,00 %
13.02.2022 15:54 11,4 C 11,1 C 6,1 C 66 % 1009,1 hPa 0,0 l/m 2 min 0 min 173 W/m 22,5 km/h (4 Bft) 100,00 %
13.02.2022 15:56 11,4 C 10,6 C 6,1 C 66 % 1009,1 hPa 0,0 l/m 2 min 0 min 173 W/m 35,4 km/h (5 Bft) 100,00 %
13.02.2022 15:58 11,3 C 10,6 C 6,1 C 66 % 1009,1 hPa 0,0 l/m 2 min 0 min 177 W/m 32,2 km/h (5 Bft) 100,00 %
13.02.2022 16:00 11,3 C 10,6 C 6,1 C 67 % 1009,0 hPa 0,0 l/m 2 min 0 min 162 W/m 32,2 km/h (5 Bft) 100,00 %
13.02.2022 16:02 11,2 C 10,6 C 6,1 C 67 % 1009,0 hPa 0,0 l/m 2 min 0 min 146 W/m 29,0 km/h (5 Bft) 100,00 %
13.02.2022 16:04 11,1 C 10,6 C 6,1 C 67 % 1008,9 hPa 0,0 l/m 2 min 0 min 136 W/m 29,0 km/h (5 Bft) 100,00 %
13.02.2022 16:06 11,1 C 10,6 C 6,1 C 68 % 1008,8 hPa 0,0 l/m 2 min 0 min 136 W/m 19,3 km/h (3 Bft) 100,00 %
13.02.2022 16:08 11,1 C 10,6 C 5,6 C 68 % 1008,8 hPa 0,0 l/m 2 min 0 min 115 W/m 22,5 km/h (4 Bft) 100,00 %
13.02.2022 16:10 11,0 C 10,6 C 5,6 C 68 % 1008,8 hPa 0,0 l/m 0 min 0 min 103 W/m 29,0 km/h (5 Bft) 100,00 %
13.02.2022 16:12 10,9 C 10,6 C 5,6 C 68 % 1008,7 hPa 0,0 l/m 0 min 0 min 98 W/m 22,5 km/h (4 Bft) 100,00 %
13.02.2022 16:14 10,9 C 10,6 C 5,6 C 68 % 1008,7 hPa 0,0 l/m 0 min 0 min 96 W/m 19,3 km/h (3 Bft) 100,00 %
13.02.2022 16:16 10,9 C 10,6 C 5,6 C 68 % 1008,7 hPa 0,0 l/m 0 min 0 min 90 W/m 22,5 km/h (4 Bft) 97,83 %
13.02.2022 16:18 10,8 C 10,6 C 5,6 C 68 % 1008,6 hPa 0,0 l/m 0 min 0 min 86 W/m 35,4 km/h (5 Bft) 97,87 %
13.02.2022 16:20 10,8 C 10,6 C 5,6 C 68 % 1008,6 hPa 0,0 l/m 0 min 0 min 84 W/m 29,0 km/h (5 Bft) 100,00 %
13.02.2022 16:22 10,8 C 10,0 C 5,6 C 68 % 1008,6 hPa 0,0 l/m 0 min 0 min 84 W/m 16,1 km/h (3 Bft) 97,87 %
13.02.2022 16:24 10,8 C 10,0 C 5,6 C 68 % 1008,6 hPa 0,0 l/m 0 min 0 min 83 W/m 16,1 km/h (3 Bft) 97,87 %
13.02.2022 16:26 10,7 C 10,0 C 5,6 C 68 % 1008,5 hPa 0,0 l/m 0 min 0 min 81 W/m 22,5 km/h (4 Bft) 97,87 %
13.02.2022 16:28 10,7 C 10,0 C 5,6 C 69 % 1008,5 hPa 0,0 l/m 0 min 0 min 79 W/m 22,5 km/h (4 Bft) 97,83 %
13.02.2022 16:30 10,7 C 10,0 C 5,6 C 69 % 1008,6 hPa 0,0 l/m 0 min 0 min 77 W/m 22,5 km/h (4 Bft) 100,00 %
13.02.2022 16:32 10,7 C 10,0 C 5,6 C 69 % 1008,6 hPa 0,0 l/m 0 min 0 min 76 W/m 19,3 km/h (3 Bft) 97,87 %
13.02.2022 16:34 10,7 C 10,0 C 5,6 C 69 % 1008,5 hPa 0,0 l/m 0 min 0 min 74 W/m 25,7 km/h (4 Bft) 97,87 %
13.02.2022 16:36 10,6 C 10,0 C 5,6 C 70 % 1008,4 hPa 0,0 l/m 0 min 0 min 71 W/m 19,3 km/h (3 Bft) 97,87 %
13.02.2022 16:38 10,6 C 10,0 C 5,6 C 70 % 1008,4 hPa 0,0 l/m 0 min 0 min 69 W/m 19,3 km/h (3 Bft) 97,87 %
13.02.2022 16:40 10,5 C 10,0 C 5,6 C 70 % 1008,4 hPa 0,0 l/m 0 min 0 min 67 W/m 16,1 km/h (3 Bft) 95,65 %
13.02.2022 16:42 10,5 C 10,0 C 5,6 C 70 % 1008,4 hPa 0,0 l/m 0 min 0 min 65 W/m 29,0 km/h (5 Bft) 97,87 %
13.02.2022 16:44 10,5 C 10,0 C 5,6 C 70 % 1008,4 hPa 0,0 l/m 0 min 0 min 63 W/m 12,9 km/h (3 Bft) 95,74 %
13.02.2022 16:46 10,4 C 10,0 C 5,6 C 70 % 1008,3 hPa 0,0 l/m 0 min 0 min 61 W/m 16,1 km/h (3 Bft) 95,74 %
13.02.2022 16:48 10,4 C 9,4 C 5,0 C 70 % 1008,3 hPa 0,0 l/m 0 min 0 min 58 W/m 19,3 km/h (3 Bft) 93,62 %
13.02.2022 16:50 10,3 C 9,4 C 5,6 C 71 % 1008,3 hPa 0,0 l/m 0 min 0 min 56 W/m 19,3 km/h (3 Bft) 95,74 %
13.02.2022 16:52 10,3 C 9,4 C 5,0 C 71 % 1008,4 hPa 0,0 l/m 0 min 0 min 54 W/m 16,1 km/h (3 Bft) 95,65 %
13.02.2022 16:54 10,3 C 9,4 C 5,0 C 71 % 1008,3 hPa 0,0 l/m 0 min 0 min 53 W/m 19,3 km/h (3 Bft) 95,74 %
13.02.2022 16:56 10,3 C 9,4 C 5,0 C 71 % 1008,3 hPa 0,0 l/m 0 min 0 min 51 W/m 25,7 km/h (4 Bft) 95,74 %
13.02.2022 16:58 10,2 C 9,4 C 5,0 C 71 % 1008,3 hPa 0,0 l/m 0 min 0 min 50 W/m 19,3 km/h (3 Bft) 95,74 %
13.02.2022 17:00 10,2 C 9,4 C 5,0 C 71 % 1008,3 hPa 0,0 l/m 0 min 0 min 47 W/m 25,7 km/h (4 Bft) 95,74 %
13.02.2022 17:02 10,1 C 9,4 C 5,0 C 71 % 1008,2 hPa 0,0 l/m 0 min 0 min 46 W/m 22,5 km/h (4 Bft) 93,48 %
13.02.2022 17:04 10,1 C 9,4 C 5,0 C 71 % 1008,2 hPa 0,0 l/m 2 min 0 min 45 W/m 19,3 km/h (3 Bft) 95,74 %
13.02.2022 17:06 10,1 C 9,4 C 5,0 C 71 % 1008,2 hPa 0,0 l/m 0 min 0 min 42 W/m 19,3 km/h (3 Bft) 95,74 %
13.02.2022 17:08 10,0 C 8,9 C 5,0 C 72 % 1008,2 hPa 0,0 l/m 0 min 0 min 40 W/m 22,5 km/h (4 Bft) 93,62 %
13.02.2022 17:10 9,9 C 8,9 C 5,0 C 72 % 1008,1 hPa 0,0 l/m 2 min 0 min 38 W/m 22,5 km/h (4 Bft) 93,62 %
13.02.2022 17:12 9,9 C 8,9 C 5,0 C 72 % 1008,1 hPa 0,0 l/m 0 min 0 min 34 W/m 22,5 km/h (4 Bft) 93,62 %
13.02.2022 17:14 9,8 C 8,9 C 5,0 C 72 % 1008,1 hPa 0,0 l/m 0 min 0 min 32 W/m 29,0 km/h (5 Bft) 91,30 %
13.02.2022 17:16 9,8 C 8,9 C 5,0 C 72 % 1008,0 hPa 0,0 l/m 0 min 0 min 30 W/m 25,7 km/h (4 Bft) 91,49 %
13.02.2022 17:18 9,8 C 8,9 C 4,4 C 72 % 1008,1 hPa 0,0 l/m 0 min 0 min 27 W/m 22,5 km/h (4 Bft) 93,62 %
13.02.2022 17:20 9,7 C 8,9 C 4,4 C 72 % 1007,9 hPa 0,0 l/m 0 min 0 min 25 W/m 22,5 km/h (4 Bft) 97,87 %
13.02.2022 17:22 9,7 C 8,9 C 4,4 C 72 % 1008,0 hPa 0,0 l/m 2 min 0 min 23 W/m 19,3 km/h (3 Bft) 97,87 %
13.02.2022 17:24 9,6 C 8,9 C 4,4 C 72 % 1007,9 hPa 0,0 l/m 0 min 0 min 20 W/m 22,5 km/h (4 Bft) 95,74 %
13.02.2022 17:26 9,6 C 8,9 C 4,4 C 72 % 1007,9 hPa 0,0 l/m 0 min 0 min 18 W/m 22,5 km/h (4 Bft) 97,83 %
13.02.2022 17:28 9,6 C 8,3 C 4,4 C 72 % 1007,9 hPa 0,0 l/m 0 min 0 min 17 W/m 16,1 km/h (3 Bft) 97,87 %
13.02.2022 17:30 9,5 C 8,3 C 4,4 C 72 % 1007,8 hPa 0,0 l/m 0 min 0 min 14 W/m 16,1 km/h (3 Bft) 97,87 %
13.02.2022 17:32 9,5 C 8,3 C 4,4 C 72 % 1007,8 hPa 0,0 l/m 0 min 0 min 13 W/m 16,1 km/h (3 Bft) 97,87 %
13.02.2022 17:34 9,4 C 8,3 C 4,4 C 72 % 1007,8 hPa 0,0 l/m 0 min 0 min 11 W/m 19,3 km/h (3 Bft) 97,87 %
13.02.2022 17:36 9,4 C 8,3 C 4,4 C 72 % 1007,8 hPa 0,0 l/m 0 min 0 min 10 W/m 16,1 km/h (3 Bft) 97,87 %
13.02.2022 17:38 9,3 C 8,3 C 4,4 C 72 % 1007,8 hPa 0,0 l/m 0 min 0 min 8 W/m 22,5 km/h (4 Bft) 97,83 %
13.02.2022 17:40 9,3 C 8,3 C 4,4 C 72 % 1007,8 hPa 0,0 l/m 0 min 0 min 5 W/m 12,9 km/h (3 Bft) 97,87 %
13.02.2022 17:42 9,2 C 8,3 C 4,4 C 72 % 1007,8 hPa 0,0 l/m 0 min 0 min 5 W/m 19,3 km/h (3 Bft) 97,87 %
13.02.2022 17:44 9,2 C 8,3 C 4,4 C 73 % 1007,7 hPa 0,0 l/m 0 min 0 min 0 W/m 22,5 km/h (4 Bft) 97,87 %
13.02.2022 17:46 9,2 C 7,8 C 4,4 C 73 % 1007,7 hPa 0,0 l/m 0 min 0 min 0 W/m 16,1 km/h (3 Bft) 97,87 %
13.02.2022 17:48 9,1 C 7,8 C 3,9 C 73 % 1007,7 hPa 0,0 l/m 0 min 0 min 0 W/m 22,5 km/h (4 Bft) 95,74 %
13.02.2022 17:50 9,1 C 7,8 C 3,9 C 73 % 1007,6 hPa 0,0 l/m 0 min 0 min 0 W/m 22,5 km/h (4 Bft) 97,83 %
13.02.2022 17:52 9,1 C 7,8 C 3,9 C 73 % 1007,6 hPa 0,0 l/m 0 min 0 min 0 W/m 22,5 km/h (4 Bft) 97,87 %
13.02.2022 17:54 9,0 C 7,8 C 3,9 C 73 % 1007,5 hPa 0,0 l/m 0 min 0 min 0 W/m 19,3 km/h (3 Bft) 100,00 %
13.02.2022 17:56 9,0 C 7,8 C 3,9 C 73 % 1007,5 hPa 0,0 l/m 0 min 0 min 0 W/m 22,5 km/h (4 Bft) 100,00 %
13.02.2022 17:58 8,9 C 7,8 C 3,9 C 73 % 1007,4 hPa 0,0 l/m 0 min 0 min 0 W/m 16,1 km/h (3 Bft) 97,87 %
13.02.2022 18:00 8,9 C 7,8 C 3,9 C 74 % 1007,4 hPa 0,0 l/m 0 min 0 min 0 W/m 22,5 km/h (4 Bft) 100,00 %
13.02.2022 18:02 8,9 C 7,8 C 3,9 C 74 % 1007,4 hPa 0,0 l/m 0 min 0 min 0 W/m 32,2 km/h (5 Bft) 100,00 %
13.02.2022 18:04 8,9 C 7,8 C 3,9 C 74 % 1007,4 hPa 0,0 l/m 0 min 0 min 0 W/m 22,5 km/h (4 Bft) 100,00 %
13.02.2022 18:08 8,8 C 7,8 C 3,9 C 74 % 1007,4 hPa 0,0 l/m 0 min 0 min 0 W/m 25,7 km/h (4 Bft) 98,80 %
13.02.2022 18:10 8,8 C 7,8 C 3,9 C 74 % 1007,4 hPa 0,0 l/m 0 min 0 min 0 W/m 29,0 km/h (5 Bft) 97,87 %
13.02.2022 18:12 8,8 C 7,8 C 3,9 C 74 % 1007,4 hPa 0,0 l/m 0 min 0 min 0 W/m 29,0 km/h (5 Bft) 100,00 %
13.02.2022 18:14 8,8 C 7,8 C 3,9 C 74 % 1007,3 hPa 0,0 l/m 0 min 0 min 0 W/m 19,3 km/h (3 Bft) 100,00 %
13.02.2022 18:16 8,7 C 7,8 C 3,9 C 74 % 1007,3 hPa 0,0 l/m 0 min 0 min 0 W/m 22,5 km/h (4 Bft) 100,00 %
13.02.2022 18:18 8,7 C 7,8 C 3,9 C 74 % 1007,3 hPa 0,0 l/m 0 min 0 min 0 W/m 25,7 km/h (4 Bft) 100,00 %
13.02.2022 18:20 8,7 C 7,8 C 3,9 C 75 % 1007,3 hPa 0,0 l/m 0 min 0 min 0 W/m 19,3 km/h (3 Bft) 100,00 %
13.02.2022 18:22 8,7 C 7,8 C 3,9 C 75 % 1007,2 hPa 0,0 l/m 0 min 0 min 0 W/m 25,7 km/h (4 Bft) 100,00 %
13.02.2022 18:24 8,7 C 7,8 C 3,9 C 75 % 1007,2 hPa 0,0 l/m 0 min 0 min 0 W/m 19,3 km/h (3 Bft) 100,00 %
13.02.2022 18:26 8,7 C 7,8 C 3,9 C 75 % 1007,2 hPa 0,0 l/m 0 min 0 min 0 W/m 19,3 km/h (3 Bft) 100,00 %
13.02.2022 18:28 8,6 C 7,8 C 3,9 C 75 % 1007,2 hPa 0,0 l/m 0 min 0 min 0 W/m 19,3 km/h (3 Bft) 100,00 %
13.02.2022 18:30 8,6 C 7,8 C 3,9 C 75 % 1007,2 hPa 0,0 l/m 0 min 0 min 0 W/m 22,5 km/h (4 Bft) 100,00 %
13.02.2022 18:32 8,6 C 7,8 C 3,9 C 75 % 1007,2 hPa 0,0 l/m 0 min 0 min 0 W/m 19,3 km/h (3 Bft) 100,00 %
13.02.2022 18:34 8,6 C 7,8 C 3,9 C 75 % 1007,1 hPa 0,0 l/m 0 min 0 min 0 W/m 25,7 km/h (4 Bft) 100,00 %
13.02.2022 18:36 8,6 C 7,8 C 3,9 C 75 % 1007,2 hPa 0,0 l/m 0 min 0 min 0 W/m 25,7 km/h (4 Bft) 100,00 %
13.02.2022 18:38 8,6 C 7,8 C 3,9 C 75 % 1007,1 hPa 0,0 l/m 0 min 0 min 0 W/m 22,5 km/h (4 Bft) 100,00 %
13.02.2022 18:40 8,6 C 7,8 C 3,9 C 75 % 1007,1 hPa 0,0 l/m 0 min 0 min 0 W/m 25,7 km/h (4 Bft) 100,00 %
13.02.2022 18:42 8,6 C 7,8 C 3,9 C 75 % 1007,1 hPa 0,0 l/m 0 min 0 min 0 W/m 22,5 km/h (4 Bft) 100,00 %
13.02.2022 18:44 8,6 C 7,8 C 3,9 C 75 % 1007,1 hPa 0,0 l/m 0 min 0 min 0 W/m 16,1 km/h (3 Bft) 98,00 %
13.02.2022 18:46 8,6 C 7,8 C 3,9 C 75 % 1007,1 hPa 0,0 l/m 0 min 0 min 0 W/m 22,5 km/h (4 Bft) 95,74 %
13.02.2022 18:48 8,6 C 7,8 C 3,9 C 75 % 1007,2 hPa 0,0 l/m 0 min 0 min 0 W/m 25,7 km/h (4 Bft) 95,74 %
13.02.2022 18:50 8,6 C 7,8 C 3,9 C 75 % 1007,1 hPa 0,0 l/m 0 min 0 min 0 W/m 16,1 km/h (3 Bft) 97,87 %
13.02.2022 18:52 8,6 C 7,8 C 3,9 C 75 % 1007,1 hPa 0,0 l/m 0 min 0 min 0 W/m 29,0 km/h (5 Bft) 97,87 %
13.02.2022 18:54 8,6 C 7,8 C 3,9 C 75 % 1007,1 hPa 0,0 l/m 0 min 0 min 0 W/m 22,5 km/h (4 Bft) 95,65 %
13.02.2022 18:56 8,6 C 7,8 C 3,9 C 75 % 1007,0 hPa 0,0 l/m 0 min 0 min 0 W/m 22,5 km/h (4 Bft) 97,87 %
13.02.2022 18:58 8,6 C 7,8 C 3,9 C 75 % 1007,0 hPa 0,0 l/m 0 min 0 min 0 W/m 32,2 km/h (5 Bft) 97,87 %
13.02.2022 19:00 8,6 C 7,8 C 3,9 C 75 % 1007,0 hPa 0,0 l/m 0 min 0 min 0 W/m 19,3 km/h (3 Bft) 97,87 %
13.02.2022 19:02 8,6 C 7,8 C 3,9 C 75 % 1007,0 hPa 0,0 l/m 0 min 0 min 0 W/m 25,7 km/h (4 Bft) 95,45 %
13.02.2022 19:04 8,6 C 7,8 C 3,9 C 75 % 1006,9 hPa 0,0 l/m 0 min 0 min 0 W/m 32,2 km/h (5 Bft) 95,65 %
13.02.2022 19:06 8,6 C 7,8 C 3,9 C 75 % 1006,9 hPa 0,0 l/m 0 min 0 min 0 W/m 25,7 km/h (4 Bft) 93,62 %
13.02.2022 19:08 8,7 C 7,8 C 3,9 C 75 % 1006,8 hPa 0,0 l/m 0 min 0 min 0 W/m 19,3 km/h (3 Bft) 95,74 %
13.02.2022 19:10 8,6 C 7,8 C 3,9 C 74 % 1006,8 hPa 0,0 l/m 0 min 0 min 0 W/m 25,7 km/h (4 Bft) 95,74 %
13.02.2022 19:12 8,7 C 7,8 C 3,9 C 74 % 1006,8 hPa 0,0 l/m 0 min 0 min 0 W/m 16,1 km/h (3 Bft) 95,74 %
13.02.2022 19:14 8,6 C 7,8 C 3,9 C 74 % 1006,7 hPa 0,0 l/m 0 min 0 min 0 W/m 25,7 km/h (4 Bft) 95,74 %
13.02.2022 19:16 8,6 C 7,8 C 3,9 C 74 % 1006,7 hPa 0,0 l/m 0 min 0 min 0 W/m 19,3 km/h (3 Bft) 93,48 %
13.02.2022 19:18 8,6 C 7,8 C 3,9 C 74 % 1006,7 hPa 0,0 l/m 0 min 0 min 0 W/m 19,3 km/h (3 Bft) 97,87 %
13.02.2022 19:20 8,6 C 7,8 C 3,9 C 74 % 1006,6 hPa 0,0 l/m 0 min 0 min 0 W/m 25,7 km/h (4 Bft) 97,87 %
13.02.2022 19:22 8,6 C 7,8 C 3,9 C 74 % 1006,6 hPa 0,0 l/m 0 min 0 min 0 W/m 32,2 km/h (5 Bft) 95,74 %
13.02.2022 19:24 8,6 C 7,8 C 3,9 C 74 % 1006,6 hPa 0,0 l/m 0 min 0 min 0 W/m 25,7 km/h (4 Bft) 95,74 %
13.02.2022 19:26 8,6 C 7,8 C 3,9 C 74 % 1006,6 hPa 0,0 l/m 0 min 0 min 0 W/m 12,9 km/h (3 Bft) 97,87 %
13.02.2022 19:28 8,6 C 7,8 C 3,9 C 74 % 1006,6 hPa 0,0 l/m 0 min 0 min 0 W/m 22,5 km/h (4 Bft) 97,83 %
13.02.2022 19:30 8,5 C 7,8 C 3,9 C 74 % 1006,6 hPa 0,0 l/m 0 min 0 min 0 W/m 25,7 km/h (4 Bft) 97,87 %
13.02.2022 19:32 8,5 C 7,8 C 3,9 C 74 % 1006,5 hPa 0,0 l/m 0 min 0 min 0 W/m 22,5 km/h (4 Bft) 97,87 %
13.02.2022 19:34 8,5 C 7,8 C 3,9 C 74 % 1006,5 hPa 0,0 l/m 0 min 0 min 0 W/m 22,5 km/h (4 Bft) 97,87 %
13.02.2022 19:36 8,4 C 7,8 C 3,9 C 74 % 1006,4 hPa 0,0 l/m 0 min 0 min 0 W/m 19,3 km/h (3 Bft) 97,87 %
13.02.2022 19:38 8,4 C 7,8 C 3,9 C 74 % 1006,3 hPa 0,0 l/m 0 min 0 min 0 W/m 22,5 km/h (4 Bft) 97,87 %
13.02.2022 19:40 8,4 C 7,2 C 3,9 C 74 % 1006,3 hPa 0,0 l/m 0 min 0 min 0 W/m 22,5 km/h (4 Bft) 97,83 %
13.02.2022 19:42 8,4 C 7,2 C 3,3 C 74 % 1006,3 hPa 0,0 l/m 0 min 0 min 0 W/m 22,5 km/h (4 Bft) 97,87 %
13.02.2022 19:44 8,3 C 7,2 C 3,9 C 74 % 1006,3 hPa 0,0 l/m 0 min 0 min 0 W/m 32,2 km/h (5 Bft) 97,87 %
13.02.2022 19:46 8,3 C 7,2 C 3,9 C 74 % 1006,2 hPa 0,0 l/m 0 min 0 min 0 W/m 25,7 km/h (4 Bft) 97,87 %
13.02.2022 19:48 8,3 C 7,2 C 3,9 C 74 % 1006,2 hPa 0,0 l/m 0 min 0 min 0 W/m 35,4 km/h (5 Bft) 97,87 %
13.02.2022 19:50 8,3 C 7,2 C 3,9 C 74 % 1006,2 hPa 0,0 l/m 0 min 0 min 0 W/m 25,7 km/h (4 Bft) 100,00 %
13.02.2022 19:52 8,3 C 7,2 C 3,3 C 74 % 1006,2 hPa 0,0 l/m 0 min 0 min 0 W/m 19,3 km/h (3 Bft) 100,00 %
13.02.2022 19:54 8,3 C 7,2 C 3,9 C 74 % 1006,1 hPa 0,0 l/m 0 min 0 min 0 W/m 35,4 km/h (5 Bft) 100,00 %
13.02.2022 19:56 8,3 C 7,2 C 3,9 C 74 % 1006,1 hPa 0,0 l/m 0 min 0 min 0 W/m 32,2 km/h (5 Bft) 97,87 %
13.02.2022 19:58 8,3 C 7,2 C 3,9 C 74 % 1006,1 hPa 0,0 l/m 0 min 0 min 0 W/m 35,4 km/h (5 Bft) 100,00 %
13.02.2022 20:00 8,3 C 7,2 C 3,9 C 74 % 1006,1 hPa 0,0 l/m 0 min 0 min 0 W/m 29,0 km/h (5 Bft) 100,00 %
13.02.2022 20:02 8,3 C 7,2 C 3,3 C 74 % 1006,0 hPa 0,0 l/m 0 min 0 min 0 W/m 22,5 km/h (4 Bft) 95,74 %
13.02.2022 20:04 8,2 C 7,2 C 3,9 C 74 % 1006,0 hPa 0,0 l/m 0 min 0 min 0 W/m 32,2 km/h (5 Bft) 97,83 %
13.02.2022 20:06 8,3 C 7,2 C 3,3 C 74 % 1006,0 hPa 0,0 l/m 0 min 0 min 0 W/m 22,5 km/h (4 Bft) 98,00 %
13.02.2022 20:08 8,2 C 7,2 C 3,3 C 74 % 1005,9 hPa 0,0 l/m 0 min 0 min 0 W/m 22,5 km/h (4 Bft) 97,87 %
13.02.2022 20:10 8,2 C 7,2 C 3,9 C 74 % 1005,8 hPa 0,0 l/m 0 min 0 min 0 W/m 29,0 km/h (5 Bft) 95,74 %
13.02.2022 20:12 8,2 C 7,2 C 3,9 C 74 % 1005,7 hPa 0,0 l/m 0 min 0 min 0 W/m 22,5 km/h (4 Bft) 97,87 %
13.02.2022 20:14 8,2 C 7,2 C 3,9 C 74 % 1005,7 hPa 0,0 l/m 0 min 0 min 0 W/m 32,2 km/h (5 Bft) 97,83 %
13.02.2022 20:16 8,3 C 7,8 C 3,9 C 74 % 1005,8 hPa 0,0 l/m 0 min 0 min 0 W/m 35,4 km/h (5 Bft) 97,87 %
13.02.2022 20:18 8,3 C 7,2 C 3,9 C 74 % 1005,7 hPa 0,0 l/m 0 min 0 min 0 W/m 29,0 km/h (5 Bft) 97,87 %
13.02.2022 20:20 8,3 C 7,2 C 3,3 C 74 % 1005,7 hPa 0,0 l/m 0 min 0 min 0 W/m 19,3 km/h (3 Bft) 97,87 %
13.02.2022 20:22 8,3 C 7,2 C 3,3 C 74 % 1005,7 hPa 0,0 l/m 0 min 0 min 0 W/m 29,0 km/h (5 Bft) 97,87 %
13.02.2022 20:24 8,2 C 7,2 C 3,3 C 73 % 1005,7 hPa 0,0 l/m 0 min 0 min 0 W/m 29,0 km/h (5 Bft) 97,87 %
13.02.2022 20:26 8,2 C 7,2 C 3,3 C 73 % 1005,7 hPa 0,0 l/m 0 min 0 min 0 W/m 25,7 km/h (4 Bft) 97,83 %
13.02.2022 20:28 8,2 C 7,2 C 3,3 C 73 % 1005,7 hPa 0,0 l/m 0 min 0 min 0 W/m 32,2 km/h (5 Bft) 95,74 %
13.02.2022 20:30 8,2 C 7,2 C 3,9 C 73 % 1005,7 hPa 0,0 l/m 0 min 0 min 0 W/m 38,6 km/h (5 Bft) 97,87 %
13.02.2022 20:32 8,2 C 7,2 C 3,9 C 73 % 1005,8 hPa 0,0 l/m 0 min 0 min 0 W/m 35,4 km/h (5 Bft) 97,87 %
13.02.2022 20:34 8,2 C 7,2 C 3,9 C 73 % 1005,7 hPa 0,0 l/m 0 min 0 min 0 W/m 25,7 km/h (4 Bft) 97,87 %
13.02.2022 20:36 8,2 C 7,2 C 3,3 C 73 % 1005,8 hPa 0,0 l/m 0 min 0 min 0 W/m 29,0 km/h (5 Bft) 97,87 %
13.02.2022 20:38 8,2 C 7,2 C 3,3 C 73 % 1005,7 hPa 0,0 l/m 0 min 0 min 0 W/m 19,3 km/h (3 Bft) 97,87 %
13.02.2022 20:40 8,2 C 7,2 C 3,3 C 73 % 1005,8 hPa 0,0 l/m 0 min 0 min 0 W/m 25,7 km/h (4 Bft) 95,65 %
13.02.2022 20:42 8,2 C 7,2 C 3,3 C 73 % 1005,7 hPa 0,0 l/m 0 min 0 min 0 W/m 25,7 km/h (4 Bft) 95,74 %
13.02.2022 20:44 8,2 C 7,2 C 3,3 C 73 % 1005,6 hPa 0,0 l/m 0 min 0 min 0 W/m 29,0 km/h (5 Bft) 93,62 %
13.02.2022 20:46 8,2 C 7,2 C 3,3 C 73 % 1005,6 hPa 0,0 l/m 0 min 0 min 0 W/m 25,7 km/h (4 Bft) 95,74 %
13.02.2022 20:48 8,2 C 7,2 C 3,3 C 73 % 1005,6 hPa 0,0 l/m 0 min 0 min 0 W/m 29,0 km/h (5 Bft) 93,62 %
13.02.2022 20:50 8,2 C 7,2 C 3,3 C 73 % 1005,5 hPa 0,0 l/m 0 min 0 min 0 W/m 25,7 km/h (4 Bft) 95,74 %
13.02.2022 20:52 8,2 C 7,2 C 3,3 C 73 % 1005,5 hPa 0,0 l/m 0 min 0 min 0 W/m 29,0 km/h (5 Bft) 97,83 %
13.02.2022 20:54 8,2 C 7,2 C 3,3 C 73 % 1005,4 hPa 0,0 l/m 0 min 0 min 0 W/m 29,0 km/h (5 Bft) 97,87 %
13.02.2022 20:56 8,2 C 7,2 C 3,3 C 73 % 1005,4 hPa 0,0 l/m 0 min 0 min 0 W/m 35,4 km/h (5 Bft) 97,87 %
13.02.2022 20:58 8,2 C 7,2 C 3,3 C 73 % 1005,4 hPa 0,0 l/m 0 min 0 min 0 W/m 25,7 km/h (4 Bft) 97,87 %
13.02.2022 21:00 8,2 C 7,2 C 3,9 C 73 % 1005,4 hPa 0,0 l/m 0 min 0 min 0 W/m 29,0 km/h (5 Bft) 97,87 %
13.02.2022 21:02 8,2 C 7,2 C 3,3 C 73 % 1005,5 hPa 0,0 l/m 0 min 0 min 0 W/m 25,7 km/h (4 Bft) 95,74 %
13.02.2022 21:04 8,2 C 7,2 C 3,9 C 73 % 1005,4 hPa 0,0 l/m 0 min 0 min 0 W/m 32,2 km/h (5 Bft) 97,83 %
13.02.2022 21:06 8,2 C 7,2 C 3,3 C 73 % 1005,4 hPa 0,0 l/m 0 min 0 min 0 W/m 29,0 km/h (5 Bft) 97,87 %
13.02.2022 21:08 8,2 C 7,2 C 3,9 C 73 % 1005,3 hPa 0,0 l/m 0 min 0 min 0 W/m 29,0 km/h (5 Bft) 97,87 %
13.02.2022 21:10 8,2 C 7,2 C 3,3 C 73 % 1005,3 hPa 0,0 l/m 0 min 0 min 0 W/m 22,5 km/h (4 Bft) 97,87 %
13.02.2022 21:12 8,2 C 7,2 C 3,3 C 73 % 1005,3 hPa 0,0 l/m 0 min 0 min 0 W/m 45,1 km/h (6 Bft) 95,35 %
13.02.2022 21:14 8,2 C 7,2 C 3,3 C 73 % 1005,3 hPa 0,0 l/m 0 min 0 min 0 W/m 32,2 km/h (5 Bft) 100,00 %
13.02.2022 21:16 8,2 C 7,2 C 3,9 C 73 % 1005,3 hPa 0,0 l/m 0 min 0 min 0 W/m 22,5 km/h (4 Bft) 100,00 %
13.02.2022 21:18 8,2 C 7,2 C 3,3 C 73 % 1005,2 hPa 0,0 l/m 0 min 0 min 0 W/m 25,7 km/h (4 Bft) 100,00 %
13.02.2022 21:20 8,2 C 7,2 C 3,3 C 73 % 1005,2 hPa 0,0 l/m 0 min 0 min 0 W/m 25,7 km/h (4 Bft) 100,00 %
13.02.2022 21:22 8,2 C 7,2 C 3,9 C 73 % 1005,2 hPa 0,0 l/m 0 min 0 min 0 W/m 25,7 km/h (4 Bft) 100,00 %
13.02.2022 21:24 8,2 C 7,2 C 3,9 C 73 % 1005,1 hPa 0,0 l/m 0 min 0 min 0 W/m 19,3 km/h (3 Bft) 100,00 %
13.02.2022 21:26 8,2 C 7,2 C 3,3 C 73 % 1005,1 hPa 0,0 l/m 0 min 0 min 0 W/m 29,0 km/h (5 Bft) 100,00 %
13.02.2022 21:28 8,2 C 7,2 C 3,3 C 73 % 1005,2 hPa 0,0 l/m 0 min 0 min 0 W/m 32,2 km/h (5 Bft) 100,00 %
13.02.2022 21:30 8,2 C 7,2 C 3,9 C 73 % 1005,1 hPa 0,0 l/m 0 min 0 min 0 W/m 29,0 km/h (5 Bft) 97,87 %
13.02.2022 21:32 8,2 C 7,2 C 3,3 C 73 % 1005,1 hPa 0,0 l/m 0 min 0 min 0 W/m 25,7 km/h (4 Bft) 95,83 %
13.02.2022 21:34 8,2 C 7,2 C 3,3 C 73 % 1005,1 hPa 0,0 l/m 0 min 0 min 0 W/m 25,7 km/h (4 Bft) 97,87 %
13.02.2022 21:36 8,2 C 7,2 C 3,3 C 73 % 1005,1 hPa 0,0 l/m 0 min 0 min 0 W/m 22,5 km/h (4 Bft) 100,00 %
13.02.2022 21:38 8,2 C 7,2 C 3,3 C 73 % 1005,0 hPa 0,0 l/m 0 min 0 min 0 W/m 32,2 km/h (5 Bft) 100,00 %
13.02.2022 21:40 8,2 C 7,2 C 3,3 C 74 % 1005,0 hPa 0,0 l/m 0 min 0 min 0 W/m 19,3 km/h (3 Bft) 97,87 %
13.02.2022 21:42 8,2 C 7,2 C 3,3 C 74 % 1005,0 hPa 0,0 l/m 0 min 0 min 0 W/m 29,0 km/h (5 Bft) 97,87 %
13.02.2022 21:44 8,2 C 7,2 C 3,3 C 73 % 1005,0 hPa 0,0 l/m 0 min 0 min 0 W/m 25,7 km/h (4 Bft) 97,87 %
13.02.2022 21:46 8,1 C 7,2 C 3,3 C 74 % 1004,9 hPa 0,0 l/m 0 min 0 min 0 W/m 22,5 km/h (4 Bft) 97,87 %
13.02.2022 21:48 8,1 C 7,2 C 3,3 C 74 % 1005,0 hPa 0,0 l/m 0 min 0 min 0 W/m 19,3 km/h (3 Bft) 97,83 %
13.02.2022 21:50 8,1 C 7,2 C 3,3 C 74 % 1004,9 hPa 0,0 l/m 0 min 0 min 0 W/m 16,1 km/h (3 Bft) 97,87 %
13.02.2022 21:52 8,1 C 7,2 C 3,3 C 74 % 1004,9 hPa 0,0 l/m 0 min 0 min 0 W/m 22,5 km/h (4 Bft) 97,87 %
13.02.2022 21:54 8,1 C 7,2 C 3,3 C 74 % 1004,9 hPa 0,0 l/m 0 min 0 min 0 W/m 19,3 km/h (3 Bft) 97,87 %
13.02.2022 21:56 8,0 C 7,2 C 3,3 C 74 % 1004,8 hPa 0,0 l/m 0 min 0 min 0 W/m 25,7 km/h (4 Bft) 95,74 %
13.02.2022 21:58 8,0 C 7,2 C 3,3 C 74 % 1004,9 hPa 0,0 l/m 0 min 0 min 0 W/m 25,7 km/h (4 Bft) 97,87 %
13.02.2022 22:00 8,0 C 7,2 C 3,3 C 74 % 1004,8 hPa 0,0 l/m 0 min 0 min 0 W/m 19,3 km/h (3 Bft) 97,87 %
13.02.2022 22:02 8,0 C 7,2 C 3,3 C 74 % 1004,8 hPa 0,0 l/m 0 min 0 min 0 W/m 22,5 km/h (4 Bft) 97,83 %
13.02.2022 22:04 8,0 C 7,2 C 3,3 C 74 % 1004,8 hPa 0,0 l/m 0 min 0 min 0 W/m 22,5 km/h (4 Bft) 97,92 %
13.02.2022 22:06 7,9 C 7,2 C 3,3 C 74 % 1004,7 hPa 0,0 l/m 0 min 0 min 0 W/m 22,5 km/h (4 Bft) 97,87 %
13.02.2022 22:08 7,9 C 7,2 C 3,3 C 74 % 1004,7 hPa 0,0 l/m 0 min 0 min 0 W/m 22,5 km/h (4 Bft) 97,87 %
13.02.2022 22:10 7,9 C 7,2 C 3,3 C 74 % 1004,7 hPa 0,0 l/m 0 min 0 min 0 W/m 19,3 km/h (3 Bft) 95,74 %
13.02.2022 22:12 7,9 C 7,2 C 3,3 C 74 % 1004,7 hPa 0,0 l/m 0 min 0 min 0 W/m 25,7 km/h (4 Bft) 97,83 %
13.02.2022 22:14 7,9 C 7,2 C 3,3 C 75 % 1004,7 hPa 0,0 l/m 0 min 0 min 0 W/m 22,5 km/h (4 Bft) 97,87 %
13.02.2022 22:16 7,9 C 7,2 C 3,3 C 75 % 1004,7 hPa 0,0 l/m 0 min 0 min 0 W/m 19,3 km/h (3 Bft) 95,74 %
13.02.2022 22:18 7,9 C 7,2 C 3,3 C 75 % 1004,7 hPa 0,0 l/m 0 min 0 min 0 W/m 22,5 km/h (4 Bft) 97,87 %
13.02.2022 22:20 7,9 C 7,2 C 3,3 C 75 % 1004,6 hPa 0,0 l/m 0 min 0 min 0 W/m 22,5 km/h (4 Bft) 97,87 %
13.02.2022 22:22 7,9 C 7,2 C 3,3 C 75 % 1004,6 hPa 0,0 l/m 0 min 0 min 0 W/m 25,7 km/h (4 Bft) 97,87 %
13.02.2022 22:24 7,9 C 7,2 C 3,3 C 75 % 1004,6 hPa 0,0 l/m 0 min 0 min 0 W/m 25,7 km/h (4 Bft) 97,83 %
13.02.2022 22:26 7,9 C 7,2 C 3,3 C 75 % 1004,6 hPa 0,0 l/m 0 min 0 min 0 W/m 29,0 km/h (5 Bft) 97,87 %
13.02.2022 22:28 7,9 C 7,2 C 3,3 C 75 % 1004,5 hPa 0,0 l/m 0 min 0 min 0 W/m 29,0 km/h (5 Bft) 100,00 %
13.02.2022 22:30 7,9 C 7,2 C 3,3 C 75 % 1004,6 hPa 0,0 l/m 0 min 0 min 0 W/m 25,7 km/h (4 Bft) 97,87 %
13.02.2022 22:32 7,9 C 7,2 C 3,3 C 75 % 1004,5 hPa 0,0 l/m 0 min 0 min 0 W/m 29,0 km/h (5 Bft) 100,00 %
13.02.2022 22:34 7,9 C 7,2 C 3,3 C 75 % 1004,5 hPa 0,0 l/m 0 min 0 min 0 W/m 25,7 km/h (4 Bft) 100,00 %
13.02.2022 22:36 7,9 C 7,2 C 3,3 C 75 % 1004,5 hPa 0,0 l/m 0 min 0 min 0 W/m 29,0 km/h (5 Bft) 100,00 %
13.02.2022 22:38 7,9 C 7,2 C 3,3 C 75 % 1004,4 hPa 0,0 l/m 0 min 0 min 0 W/m 19,3 km/h (3 Bft) 97,87 %
13.02.2022 22:40 7,9 C 7,2 C 3,3 C 75 % 1004,4 hPa 0,0 l/m 0 min 0 min 0 W/m 32,2 km/h (5 Bft) 97,87 %
13.02.2022 22:42 7,9 C 7,2 C 3,3 C 75 % 1004,5 hPa 0,0 l/m 0 min 0 min 0 W/m 22,5 km/h (4 Bft) 97,87 %
13.02.2022 22:44 7,9 C 7,2 C 3,3 C 75 % 1004,5 hPa 0,0 l/m 0 min 0 min 0 W/m 35,4 km/h (5 Bft) 97,87 %
13.02.2022 22:46 7,9 C 7,2 C 3,3 C 75 % 1004,4 hPa 0,0 l/m 0 min 0 min 0 W/m 32,2 km/h (5 Bft) 93,62 %
13.02.2022 22:48 7,9 C 7,2 C 3,3 C 75 % 1004,4 hPa 0,0 l/m 0 min 0 min 0 W/m 29,0 km/h (5 Bft) 97,83 %
13.02.2022 22:50 7,9 C 7,2 C 3,3 C 75 % 1004,4 hPa 0,0 l/m 0 min 0 min 0 W/m 25,7 km/h (4 Bft) 95,74 %
13.02.2022 22:52 7,9 C 7,2 C 3,3 C 75 % 1004,4 hPa 0,0 l/m 0 min 0 min 0 W/m 22,5 km/h (4 Bft) 91,49 %
13.02.2022 22:54 7,9 C 7,2 C 3,3 C 75 % 1004,4 hPa 0,0 l/m 0 min 0 min 0 W/m 25,7 km/h (4 Bft) 97,87 %
13.02.2022 22:56 7,9 C 7,2 C 3,3 C 75 % 1004,3 hPa 0,0 l/m 0 min 0 min 0 W/m 25,7 km/h (4 Bft) 95,74 %
13.02.2022 22:58 7,9 C 7,2 C 3,3 C 75 % 1004,3 hPa 0,0 l/m 0 min 0 min 0 W/m 25,7 km/h (4 Bft) 93,48 %
13.02.2022 23:00 7,9 C 7,2 C 3,3 C 75 % 1004,3 hPa 0,0 l/m 0 min 0 min 0 W/m 29,0 km/h (5 Bft) 95,74 %
13.02.2022 23:02 7,9 C 7,2 C 3,3 C 75 % 1004,3 hPa 0,0 l/m 0 min 0 min 0 W/m 29,0 km/h (5 Bft) 93,75 %
13.02.2022 23:04 7,9 C 7,2 C 3,3 C 75 % 1004,3 hPa 0,0 l/m 0 min 0 min 0 W/m 25,7 km/h (4 Bft) 93,62 %
13.02.2022 23:06 7,9 C 7,2 C 3,3 C 75 % 1004,2 hPa 0,0 l/m 0 min 0 min 0 W/m 25,7 km/h (4 Bft) 95,74 %
13.02.2022 23:08 7,8 C 7,2 C 3,3 C 75 % 1004,2 hPa 0,0 l/m 0 min 0 min 0 W/m 22,5 km/h (4 Bft) 95,74 %
13.02.2022 23:10 7,8 C 7,2 C 3,3 C 75 % 1004,2 hPa 0,0 l/m 0 min 0 min 0 W/m 32,2 km/h (5 Bft) 97,83 %
13.02.2022 23:12 7,8 C 7,2 C 3,3 C 75 % 1004,3 hPa 0,0 l/m 0 min 0 min 0 W/m 22,5 km/h (4 Bft) 95,74 %
13.02.2022 23:14 7,8 C 7,2 C 3,3 C 75 % 1004,2 hPa 0,0 l/m 0 min 0 min 0 W/m 25,7 km/h (4 Bft) 97,87 %
13.02.2022 23:16 7,8 C 7,2 C 3,3 C 75 % 1004,1 hPa 0,0 l/m 0 min 0 min 0 W/m 22,5 km/h (4 Bft) 95,83 %
13.02.2022 23:18 7,8 C 7,2 C 3,3 C 75 % 1004,1 hPa 0,0 l/m 0 min 0 min 0 W/m 25,7 km/h (4 Bft) 95,74 %
13.02.2022 23:20 7,8 C 7,2 C 3,3 C 75 % 1004,1 hPa 0,0 l/m 0 min 0 min 0 W/m 12,9 km/h (3 Bft) 95,74 %
13.02.2022 23:22 7,8 C 7,2 C 3,3 C 75 % 1004,2 hPa 0,0 l/m 0 min 0 min 0 W/m 22,5 km/h (4 Bft) 95,74 %
13.02.2022 23:24 7,8 C 6,7 C 3,3 C 75 % 1004,1 hPa 0,0 l/m 0 min 0 min 0 W/m 19,3 km/h (3 Bft) 97,87 %
13.02.2022 23:26 7,8 C 6,7 C 3,3 C 76 % 1004,0 hPa 0,0 l/m 0 min 0 min 0 W/m 22,5 km/h (4 Bft) 97,83 %
13.02.2022 23:28 7,8 C 7,2 C 3,3 C 76 % 1004,0 hPa 0,0 l/m 0 min 0 min 0 W/m 25,7 km/h (4 Bft) 97,87 %
13.02.2022 23:30 7,8 C 7,2 C 3,3 C 76 % 1004,1 hPa 0,0 l/m 0 min 0 min 0 W/m 29,0 km/h (5 Bft) 97,87 %
13.02.2022 23:32 7,8 C 7,2 C 3,3 C 76 % 1004,0 hPa 0,0 l/m 0 min 0 min 0 W/m 29,0 km/h (5 Bft) 97,87 %
13.02.2022 23:34 7,8 C 7,2 C 3,3 C 76 % 1004,1 hPa 0,0 l/m 0 min 0 min 0 W/m 19,3 km/h (3 Bft) 97,87 %
13.02.2022 23:36 7,8 C 7,2 C 3,3 C 76 % 1004,0 hPa 0,0 l/m 0 min 0 min 0 W/m 29,0 km/h (5 Bft) 95,74 %
13.02.2022 23:38 7,8 C 7,2 C 3,3 C 76 % 1003,9 hPa 0,0 l/m 0 min 0 min 0 W/m 25,7 km/h (4 Bft) 93,48 %
13.02.2022 23:40 7,8 C 7,2 C 3,3 C 76 % 1004,0 hPa 0,0 l/m 0 min 0 min 0 W/m 25,7 km/h (4 Bft) 97,87 %
13.02.2022 23:42 7,8 C 7,2 C 3,3 C 76 % 1003,9 hPa 0,0 l/m 0 min 0 min 0 W/m 22,5 km/h (4 Bft) 97,87 %
13.02.2022 23:44 7,8 C 7,2 C 3,3 C 76 % 1003,9 hPa 0,0 l/m 0 min 0 min 0 W/m 25,7 km/h (4 Bft) 95,74 %
13.02.2022 23:46 7,8 C 7,2 C 3,3 C 76 % 1003,8 hPa 0,0 l/m 0 min 0 min 0 W/m 22,5 km/h (4 Bft) 100,00 %
13.02.2022 23:48 7,8 C 7,2 C 3,3 C 76 % 1003,9 hPa 0,0 l/m 0 min 0 min 0 W/m 25,7 km/h (4 Bft) 100,00 %
13.02.2022 23:50 7,8 C 7,2 C 3,3 C 76 % 1003,8 hPa 0,0 l/m 0 min 0 min 0 W/m 22,5 km/h (4 Bft) 97,83 %
13.02.2022 23:52 7,8 C 7,2 C 3,3 C 76 % 1003,8 hPa 0,0 l/m 0 min 0 min 0 W/m 22,5 km/h (4 Bft) 100,00 %
13.02.2022 23:54 7,8 C 7,2 C 3,3 C 76 % 1003,8 hPa 0,0 l/m 0 min 0 min 0 W/m 22,5 km/h (4 Bft) 100,00 %
13.02.2022 23:56 7,8 C 7,2 C 3,3 C 76 % 1003,8 hPa 0,0 l/m 0 min 0 min 0 W/m 19,3 km/h (3 Bft) 95,74 %
13.02.2022 23:58 7,8 C 7,2 C 3,3 C 76 % 1003,8 hPa 0,0 l/m 0 min 0 min 0 W/m 29,0 km/h (5 Bft) 100,00 %
_ Min-Zeit 07:50 04:40 04:32 14:22 23:46 - - - - 02:38 06:50
Minimum _ -0,6 C -1,1 C -3,9 C 60 % 1003,8 hPa - - - - 6,4 km/h (2 Bft) 55,32 %
_ Max-Zeit 15:10 13:20 15:00 01:12 00:00 00:00 08:52 00:00 13:08 21:12 01:00
Maximum _ 11,8 C 15,0 C 6,7 C 87 % 1021,2 hPa 0,0 l/m 2 min 0 min 430 W/m 45,1 km/h
S (6 Bft)
100,00 %
Durchschnitt _ 5,0 C 5,3 C 0,9 C 77 % 1012,9 hPa #0,0 l/m #6:44 h #0 min. 210 W/m 20,4 km/h (4 Bft) 97,27 %
© 2022 W. Hausmann